CES586 KLAX-ZSPD

Flight info

Callsign CES586
Flight time N/A
Altitude 28000
Route SUMMR2 MCKEY DCT LIBBO DCT BRINY DCT BOARS DCT AMAKR DCT REDWD DCT TRYSH DCT GAPNE DCT 44N140W 47N150W 50N160W 51N170W/N0498F300 51N180E 50N170E DCT CUTEE/N0499F320 DCT KALIG DCT KALNA OTR5 ADNAP Y807 LALID Y804 INUBO Y60 NIPEN/N0504F340 Y60 ISAKY Y592 ONIKU A593 LAMEN/K0933F340 A593 AKARA/K0933S1040 A593 DUMET DUM82A
Aircraft B77W/H-SDE1E2E3FGHIJ2J3J4J5M1RWXY/LB1D1

Departure

Time 2026-05-05 15:13
Airport Los Angeles International Airport (KLAX)

Arrival

Time N/A
Airport Shanghai Pudong International Airport (ZSPD)
Time Latitude Longitude Altitude Speed Heading
2026-05-05 14:25 33.94100 -118.41080 98 ft 0 kts 83°
2026-05-05 15:00 33.94098 -118.41096 97 ft 3 kts 83°
2026-05-05 15:01 33.94096 -118.41120 97 ft 3 kts 83°
2026-05-05 15:01 33.94093 -118.41143 97 ft 3 kts 82°
2026-05-05 15:01 33.94089 -118.41166 97 ft 3 kts 59°
2026-05-05 15:01 33.94076 -118.41183 97 ft 3 kts 24°
2026-05-05 15:02 33.94058 -118.41189 97 ft 3 kts 358°
2026-05-05 15:02 33.94046 -118.41188 97 ft 2 kts 353°
2026-05-05 15:02 33.94027 -118.41185 97 ft 3 kts 353°
2026-05-05 15:02 33.94015 -118.41183 97 ft 0 kts 353°
2026-05-05 15:03 33.94014 -118.41183 97 ft 0 kts 353°
2026-05-05 15:06 33.94017 -118.41183 97 ft 3 kts 353°
2026-05-05 15:06 33.94073 -118.41191 97 ft 11 kts 353°
2026-05-05 15:06 33.94147 -118.41202 97 ft 11 kts 353°
2026-05-05 15:06 33.94222 -118.41213 97 ft 11 kts 353°
2026-05-05 15:07 33.94297 -118.41225 100 ft 11 kts 352°
2026-05-05 15:07 33.94376 -118.41238 99 ft 14 kts 352°
2026-05-05 15:07 33.94471 -118.41251 99 ft 14 kts 354°
2026-05-05 15:07 33.94566 -118.41264 97 ft 14 kts 353°
2026-05-05 15:08 33.94661 -118.41279 101 ft 14 kts 353°
2026-05-05 15:08 33.94752 -118.41292 98 ft 12 kts 356°
2026-05-05 15:08 33.94797 -118.41230 102 ft 11 kts 81°
2026-05-05 15:08 33.94809 -118.41121 99 ft 19 kts 83°
2026-05-05 15:09 33.94827 -118.40940 102 ft 22 kts 83°
2026-05-05 15:09 33.94846 -118.40755 101 ft 22 kts 83°
2026-05-05 15:09 33.94866 -118.40570 100 ft 22 kts 83°
2026-05-05 15:09 33.94885 -118.40385 99 ft 22 kts 83°
2026-05-05 15:10 33.94904 -118.40203 99 ft 20 kts 83°
2026-05-05 15:10 33.94918 -118.40054 101 ft 14 kts 83°
2026-05-05 15:10 33.94936 -118.39948 97 ft 10 kts 63°
2026-05-05 15:10 33.94948 -118.39931 97 ft 0 kts 39°
2026-05-05 15:11 33.94952 -118.39928 97 ft 4 kts 33°
2026-05-05 15:11 33.95024 -118.39927 98 ft 10 kts 328°
2026-05-05 15:12 33.95037 -118.40007 98 ft 10 kts 263°
2026-05-05 15:12 33.95022 -118.40149 105 ft 28 kts 263°
2026-05-05 15:12 33.94968 -118.40676 104 ft 105 kts 263°
2026-05-05 15:12 33.94845 -118.41881 103 ft 184 kts 263°
2026-05-05 15:13 33.94681 -118.43546 680 ft 201 kts 264°
2026-05-05 15:13 33.94517 -118.45207 1737 ft 197 kts 264°
2026-05-05 15:13 33.94358 -118.46784 2452 ft 188 kts 265°
2026-05-05 15:13 33.94277 -118.48420 2595 ft 204 kts 268°
2026-05-05 15:14 33.94230 -118.50201 2774 ft 221 kts 268°
2026-05-05 15:14 33.94154 -118.52128 3043 ft 237 kts 265°
2026-05-05 15:14 33.93992 -118.54146 3528 ft 247 kts 264°
2026-05-05 15:14 33.93818 -118.56248 3976 ft 258 kts 264°
2026-05-05 15:15 33.93641 -118.58427 4514 ft 265 kts 264°
2026-05-05 15:15 33.93463 -118.60652 5130 ft 269 kts 264°
2026-05-05 15:15 33.93284 -118.62903 5813 ft 270 kts 264°
2026-05-05 15:15 33.93106 -118.65162 6503 ft 272 kts 264°
2026-05-05 15:16 33.92929 -118.67437 7137 ft 274 kts 264°
2026-05-05 15:16 33.92750 -118.69739 7750 ft 278 kts 265°
2026-05-05 15:16 33.92569 -118.72066 8364 ft 281 kts 264°
2026-05-05 15:16 33.92388 -118.74421 8982 ft 284 kts 265°
2026-05-05 15:17 33.92203 -118.76800 9611 ft 286 kts 264°
2026-05-05 15:17 33.92014 -118.79189 10231 ft 289 kts 265°
2026-05-05 15:17 33.91821 -118.81653 10504 ft 305 kts 265°
2026-05-05 15:17 33.91646 -118.84280 10656 ft 324 kts 269°
2026-05-05 15:18 33.91695 -118.87074 10834 ft 344 kts 273°
2026-05-05 15:18 33.91840 -118.90022 11122 ft 360 kts 274°
2026-05-05 15:18 33.91975 -118.93067 11624 ft 369 kts 273°
2026-05-05 15:18 33.92080 -118.96168 12284 ft 373 kts 272°
2026-05-05 15:19 33.92176 -118.99298 12990 ft 374 kts 273°
2026-05-05 15:19 33.92625 -119.02375 13462 ft 379 kts 292°
2026-05-05 15:19 33.93944 -119.05109 14042 ft 378 kts 304°
2026-05-05 15:19 33.95408 -119.07778 14544 ft 385 kts 302°
2026-05-05 15:20 33.96833 -119.10528 15156 ft 389 kts 301°
2026-05-05 15:20 33.98257 -119.13307 15844 ft 391 kts 301°
2026-05-05 15:20 33.99692 -119.16101 16507 ft 393 kts 301°
2026-05-05 15:20 34.01239 -119.18816 16992 ft 397 kts 312°
2026-05-05 15:21 34.03383 -119.20925 17306 ft 401 kts 326°
2026-05-05 15:21 34.05734 -119.22806 17702 ft 409 kts 325°
2026-05-05 15:21 34.08080 -119.24752 18335 ft 410 kts 324°
2026-05-05 15:21 34.10418 -119.26733 18972 ft 411 kts 324°
2026-05-05 15:22 34.12761 -119.28738 19523 ft 415 kts 324°
2026-05-05 15:22 34.15123 -119.30772 20035 ft 419 kts 324°
2026-05-05 15:22 34.17504 -119.32824 20535 ft 422 kts 324°
2026-05-05 15:22 34.19903 -119.34894 21044 ft 425 kts 324°
2026-05-05 15:23 34.22315 -119.36977 21547 ft 428 kts 324°
2026-05-05 15:23 34.24744 -119.39075 22059 ft 430 kts 324°
2026-05-05 15:23 34.27187 -119.41185 22518 ft 433 kts 324°
2026-05-05 15:23 34.29651 -119.43317 22943 ft 437 kts 324°
2026-05-05 15:24 34.32134 -119.45467 23367 ft 441 kts 324°
2026-05-05 15:24 34.34632 -119.47631 23809 ft 443 kts 324°
2026-05-05 15:24 34.37145 -119.49809 24251 ft 446 kts 324°
2026-05-05 15:24 34.39674 -119.52003 24675 ft 448 kts 324°
2026-05-05 15:25 34.42102 -119.54307 25041 ft 449 kts 316°
2026-05-05 15:25 34.44229 -119.57099 25347 ft 453 kts 310°
2026-05-05 15:25 34.46242 -119.60053 25706 ft 456 kts 309°
2026-05-05 15:25 34.48243 -119.63049 26075 ft 458 kts 309°
2026-05-05 15:26 34.50262 -119.66054 26447 ft 461 kts 309°
2026-05-05 15:26 34.52308 -119.69060 26831 ft 463 kts 310°
2026-05-05 15:26 34.54380 -119.72062 27185 ft 465 kts 310°
2026-05-05 15:26 34.56476 -119.75067 27498 ft 468 kts 311°
2026-05-05 15:27 34.58588 -119.78078 27819 ft 470 kts 311°
2026-05-05 15:27 34.60722 -119.81115 27957 ft 476 kts 311°
2026-05-05 15:27 34.62872 -119.84176 28022 ft 478 kts 311°
2026-05-05 15:28 34.67230 -119.90394 28034 ft 488 kts 311°
2026-05-05 15:28 34.71668 -119.96744 28047 ft 496 kts 311°
2026-05-05 15:29 34.76164 -120.03191 28051 ft 503 kts 312°
2026-05-05 15:29 34.80702 -120.09711 28043 ft 504 kts 312°
2026-05-05 15:30 34.85230 -120.16228 28048 ft 504 kts 313°
2026-05-05 15:30 34.89749 -120.22743 28059 ft 503 kts 313°
2026-05-05 15:31 34.94262 -120.29261 28064 ft 503 kts 313°
2026-05-05 15:31 34.98773 -120.35794 28064 ft 503 kts 313°
2026-05-05 15:32 35.03276 -120.42324 28061 ft 503 kts 313°
2026-05-05 15:32 35.07749 -120.48821 28064 ft 503 kts 314°
2026-05-05 15:33 35.12228 -120.55346 28062 ft 499 kts 314°
2026-05-05 15:33 35.16699 -120.61875 28062 ft 502 kts 314°
2026-05-05 15:34 35.21198 -120.68430 28073 ft 504 kts 314°
2026-05-05 15:34 35.25698 -120.75010 28060 ft 505 kts 314°
2026-05-05 15:35 35.30196 -120.81610 28066 ft 505 kts 314°
2026-05-05 15:35 35.34682 -120.88208 28064 ft 504 kts 314°
2026-05-05 15:36 35.38404 -120.93690 28073 ft 503 kts 314°
2026-05-05 15:36 35.42872 -121.00278 28073 ft 502 kts 314°
2026-05-05 15:37 35.47337 -121.06871 28072 ft 503 kts 314°
2026-05-05 15:37 35.51833 -121.13433 28080 ft 502 kts 315°
2026-05-05 15:38 35.56377 -121.19937 28085 ft 502 kts 316°
2026-05-05 15:38 35.60925 -121.26457 28083 ft 502 kts 316°
2026-05-05 15:39 35.65456 -121.32994 28084 ft 502 kts 316°
2026-05-05 15:39 35.69951 -121.39497 28082 ft 502 kts 316°
2026-05-05 15:40 35.74472 -121.46054 28084 ft 502 kts 316°
2026-05-05 15:40 35.78992 -121.52617 28084 ft 503 kts 316°
2026-05-05 15:41 35.83508 -121.59192 28083 ft 502 kts 316°
2026-05-05 15:41 35.88018 -121.65767 28079 ft 503 kts 316°
2026-05-05 15:42 35.92535 -121.72364 28074 ft 503 kts 316°
2026-05-05 15:42 35.97074 -121.78938 28072 ft 501 kts 320°
2026-05-05 15:43 36.02302 -121.84439 28081 ft 489 kts 332°
2026-05-05 15:43 36.08155 -121.88537 28075 ft 481 kts 339°
2026-05-05 15:44 36.14155 -121.92209 28075 ft 481 kts 340°
2026-05-05 15:44 36.20144 -121.95905 28073 ft 481 kts 339°
2026-05-05 15:45 36.26121 -121.99638 28074 ft 481 kts 339°
2026-05-05 15:45 36.32094 -122.03396 28075 ft 481 kts 339°
2026-05-05 15:46 36.38071 -122.07159 28074 ft 482 kts 339°
2026-05-05 15:46 36.44045 -122.10926 28074 ft 482 kts 339°
2026-05-05 15:47 36.50021 -122.14700 28073 ft 482 kts 339°
2026-05-05 15:47 36.55999 -122.18485 28074 ft 482 kts 339°
2026-05-05 15:48 36.61981 -122.22278 28076 ft 482 kts 339°
2026-05-05 15:48 36.67957 -122.26073 28073 ft 482 kts 339°
2026-05-05 15:49 36.73947 -122.29882 28169 ft 485 kts 339°
2026-05-05 15:49 36.76951 -122.31794 28450 ft 484 kts 339°
2026-05-05 15:49 36.79908 -122.33684 28823 ft 481 kts 339°
2026-05-05 15:49 36.82879 -122.35584 29195 ft 478 kts 339°
2026-05-05 15:50 36.85842 -122.37478 29444 ft 478 kts 339°
2026-05-05 15:50 36.88802 -122.39370 29691 ft 478 kts 339°
2026-05-05 15:50 36.91759 -122.41261 29940 ft 477 kts 339°
2026-05-05 15:50 36.94710 -122.43148 30225 ft 476 kts 339°
2026-05-05 15:51 36.97652 -122.45033 30504 ft 474 kts 339°
2026-05-05 15:51 37.00591 -122.46916 30686 ft 475 kts 339°
2026-05-05 15:51 37.03539 -122.48808 30862 ft 476 kts 339°
2026-05-05 15:51 37.06482 -122.50701 31096 ft 475 kts 339°
2026-05-05 15:52 37.09419 -122.52591 31300 ft 475 kts 339°
2026-05-05 15:52 37.12356 -122.54481 31504 ft 474 kts 339°
2026-05-05 15:52 37.15288 -122.56370 31685 ft 474 kts 339°
2026-05-05 15:52 37.18225 -122.58264 31830 ft 475 kts 339°
2026-05-05 15:53 37.21160 -122.60157 31971 ft 474 kts 339°
2026-05-05 15:53 37.27036 -122.63956 32065 ft 475 kts 339°
2026-05-05 15:54 37.32978 -122.67521 32073 ft 469 kts 345°
2026-05-05 15:54 37.39053 -122.70509 32074 ft 469 kts 345°
2026-05-05 15:55 37.45124 -122.73497 32076 ft 469 kts 345°
2026-05-05 15:55 37.51183 -122.76516 32072 ft 469 kts 345°
2026-05-05 15:56 37.57245 -122.79555 32076 ft 469 kts 345°
2026-05-05 15:56 37.63308 -122.82598 32073 ft 469 kts 345°
2026-05-05 15:57 37.69380 -122.85652 32066 ft 470 kts 345°
2026-05-05 15:57 37.75449 -122.88710 32065 ft 470 kts 345°
2026-05-05 15:58 37.81482 -122.91753 32065 ft 470 kts 345°
2026-05-05 15:58 37.87555 -122.94824 32057 ft 470 kts 345°
2026-05-05 15:59 37.93633 -122.97902 32057 ft 470 kts 345°
2026-05-05 15:59 37.99750 -123.01003 32054 ft 471 kts 345°
2026-05-05 16:00 38.05833 -123.04096 32061 ft 471 kts 345°
2026-05-05 16:00 38.11888 -123.07179 32063 ft 472 kts 345°
2026-05-05 16:01 38.17987 -123.10290 32055 ft 472 kts 345°
2026-05-05 16:01 38.24016 -123.13693 32047 ft 478 kts 338°
2026-05-05 16:02 38.29715 -123.18184 32065 ft 483 kts 335°
2026-05-05 16:02 38.35381 -123.22779 32053 ft 483 kts 335°
2026-05-05 16:03 38.41069 -123.27358 32054 ft 484 kts 335°
2026-05-05 16:03 38.46764 -123.31921 32053 ft 484 kts 335°
2026-05-05 16:04 38.52461 -123.36492 32056 ft 484 kts 335°
2026-05-05 16:04 38.58161 -123.41076 32054 ft 484 kts 335°
2026-05-05 16:05 38.63857 -123.45665 32056 ft 484 kts 335°
2026-05-05 16:05 38.69557 -123.50268 32058 ft 484 kts 335°
2026-05-05 16:06 38.75254 -123.54876 32053 ft 484 kts 335°
2026-05-05 16:06 38.80950 -123.59489 32052 ft 484 kts 335°
2026-05-05 16:07 38.86649 -123.64121 32061 ft 485 kts 335°
2026-05-05 16:07 38.92323 -123.68732 32059 ft 486 kts 335°
2026-05-05 16:08 38.97871 -123.73739 32046 ft 496 kts 324°
2026-05-05 16:08 39.02300 -123.80725 32065 ft 515 kts 307°
2026-05-05 16:09 39.05515 -123.89047 32071 ft 521 kts 302°
2026-05-05 16:09 39.08598 -123.97507 32069 ft 522 kts 302°
2026-05-05 16:10 39.11728 -124.05962 32065 ft 523 kts 302°
2026-05-05 16:10 39.14895 -124.14413 32068 ft 524 kts 302°
2026-05-05 16:11 39.18078 -124.22872 32063 ft 525 kts 302°
2026-05-05 16:12 39.24421 -124.39821 32064 ft 525 kts 302°
2026-05-05 16:13 39.32276 -124.60997 32065 ft 524 kts 302°
2026-05-05 16:13 39.35419 -124.69499 32067 ft 524 kts 302°
2026-05-05 16:14 39.41689 -124.86530 32073 ft 524 kts 302°
2026-05-05 16:15 39.47914 -125.03565 32074 ft 524 kts 302°
2026-05-05 16:16 39.54128 -125.20642 32075 ft 524 kts 301°
2026-05-05 16:17 39.58752 -125.33429 32075 ft 525 kts 301°
2026-05-05 16:18 39.63387 -125.46297 32075 ft 525 kts 301°
2026-05-05 16:19 39.68013 -125.59193 32074 ft 526 kts 301°
2026-05-05 16:19 39.72116 -125.70679 32075 ft 526 kts 301°
2026-05-05 16:20 39.78257 -125.87968 32073 ft 526 kts 300°
2026-05-05 16:22 39.85898 -126.09607 32072 ft 526 kts 300°
2026-05-05 16:23 39.91981 -126.26955 32074 ft 526 kts 300°
2026-05-05 16:23 39.96501 -126.39924 32076 ft 526 kts 300°
2026-05-05 16:24 39.99522 -126.48617 32073 ft 526 kts 300°
2026-05-05 16:25 40.03713 -126.61897 32076 ft 529 kts 296°
2026-05-05 16:25 40.07683 -126.75334 32075 ft 528 kts 296°
2026-05-05 16:26 40.13057 -126.93176 32073 ft 527 kts 296°
2026-05-05 16:27 40.15736 -127.02112 32075 ft 527 kts 296°
2026-05-05 16:27 40.18392 -127.10971 32073 ft 527 kts 296°
2026-05-05 16:28 40.21057 -127.19900 32073 ft 527 kts 296°
2026-05-05 16:28 40.23737 -127.28894 32075 ft 527 kts 295°
2026-05-05 16:29 40.26377 -127.37781 32074 ft 527 kts 295°
2026-05-05 16:29 40.29027 -127.46736 32072 ft 527 kts 295°
2026-05-05 16:30 40.31668 -127.55713 32076 ft 528 kts 295°
2026-05-05 16:30 40.34307 -127.64692 32072 ft 528 kts 295°
2026-05-05 16:31 40.36924 -127.73628 32073 ft 528 kts 295°
2026-05-05 16:31 40.39564 -127.82685 32074 ft 528 kts 295°
2026-05-05 16:32 40.42166 -127.91631 32074 ft 528 kts 295°
2026-05-05 16:32 40.44776 -128.00636 32073 ft 528 kts 295°
2026-05-05 16:33 40.47380 -128.09660 32074 ft 528 kts 294°
2026-05-05 16:33 40.49979 -128.18690 32074 ft 528 kts 294°
2026-05-05 16:34 40.52567 -128.27713 32075 ft 528 kts 294°
2026-05-05 16:34 40.55145 -128.36741 32074 ft 527 kts 294°
2026-05-05 16:35 40.57716 -128.45766 32072 ft 527 kts 294°
2026-05-05 16:35 40.60281 -128.54808 32075 ft 527 kts 294°
2026-05-05 16:36 40.62831 -128.63830 32073 ft 526 kts 294°
2026-05-05 16:36 40.65375 -128.72857 32075 ft 526 kts 294°
2026-05-05 16:37 40.67914 -128.81912 32073 ft 526 kts 293°
2026-05-05 16:37 40.70446 -128.90943 32078 ft 525 kts 293°
2026-05-05 16:38 40.72964 -128.99975 32084 ft 525 kts 293°
2026-05-05 16:38 40.75458 -129.08952 32083 ft 524 kts 293°
2026-05-05 16:39 40.77958 -129.17992 32085 ft 525 kts 293°
2026-05-05 16:39 40.80453 -129.27039 32083 ft 525 kts 293°
2026-05-05 16:40 40.82941 -129.36087 32083 ft 524 kts 292°
2026-05-05 16:40 40.85420 -129.45148 32083 ft 524 kts 292°
2026-05-05 16:41 40.87893 -129.54211 32084 ft 524 kts 292°
2026-05-05 16:41 40.90360 -129.63278 32081 ft 524 kts 292°
2026-05-05 16:42 40.92823 -129.72379 32084 ft 524 kts 292°
2026-05-05 16:42 40.95272 -129.81454 32083 ft 524 kts 292°
2026-05-05 16:43 40.97715 -129.90532 32083 ft 524 kts 292°
2026-05-05 16:43 41.00153 -129.99631 32082 ft 523 kts 292°
2026-05-05 16:44 41.02574 -130.08712 32087 ft 523 kts 291°
2026-05-05 16:44 41.04973 -130.17729 32081 ft 523 kts 291°
2026-05-05 16:45 41.07380 -130.26809 32084 ft 523 kts 291°
2026-05-05 16:45 41.09777 -130.35892 32084 ft 522 kts 291°
2026-05-05 16:46 41.12175 -130.45003 32083 ft 522 kts 291°
2026-05-05 16:46 41.14560 -130.54101 32083 ft 522 kts 291°
2026-05-05 16:47 41.16937 -130.63212 32083 ft 522 kts 291°
2026-05-05 16:47 41.19312 -130.72344 32086 ft 522 kts 291°
2026-05-05 16:48 41.22104 -130.81193 32092 ft 518 kts 297°
2026-05-05 16:48 41.25218 -130.89768 32082 ft 519 kts 297°
2026-05-05 16:49 41.28342 -130.98421 32083 ft 519 kts 297°
2026-05-05 16:49 41.31434 -131.07102 32082 ft 520 kts 297°
2026-05-05 16:50 41.34518 -131.15829 32071 ft 520 kts 297°
2026-05-05 16:50 41.37588 -131.24551 32075 ft 520 kts 296°
2026-05-05 16:51 41.40650 -131.33273 32073 ft 520 kts 296°
2026-05-05 16:51 41.43706 -131.42002 32072 ft 519 kts 296°
2026-05-05 16:52 41.46753 -131.50731 32075 ft 519 kts 296°
2026-05-05 16:52 41.49792 -131.59465 32073 ft 519 kts 296°
2026-05-05 16:53 41.52824 -131.68205 32075 ft 519 kts 296°
2026-05-05 16:53 41.55850 -131.76960 32073 ft 519 kts 296°
2026-05-05 16:54 41.58868 -131.85712 32078 ft 519 kts 295°
2026-05-05 16:54 41.61881 -131.94479 32071 ft 518 kts 295°
2026-05-05 16:55 41.64882 -132.03240 32076 ft 518 kts 295°
2026-05-05 16:55 41.67880 -132.12017 32073 ft 518 kts 295°
2026-05-05 16:56 41.70865 -132.20788 32074 ft 518 kts 295°
2026-05-05 16:56 41.73846 -132.29573 32073 ft 518 kts 295°
2026-05-05 16:57 41.76798 -132.38302 32073 ft 518 kts 295°
2026-05-05 16:57 41.79765 -132.47097 32077 ft 518 kts 295°
2026-05-05 16:58 41.82724 -132.55908 32079 ft 519 kts 295°
2026-05-05 16:58 41.85681 -132.64730 32085 ft 519 kts 295°
2026-05-05 16:59 41.88631 -132.73565 32083 ft 519 kts 295°
2026-05-05 16:59 41.91553 -132.82339 32083 ft 519 kts 294°
2026-05-05 17:00 41.94488 -132.91184 32086 ft 519 kts 294°
2026-05-05 17:00 41.97425 -133.00063 32082 ft 519 kts 294°
2026-05-05 17:01 42.00348 -133.08928 32083 ft 519 kts 294°
2026-05-05 17:01 42.03265 -133.17808 32079 ft 519 kts 294°
2026-05-05 17:02 42.06174 -133.26685 32072 ft 518 kts 293°
2026-05-05 17:02 42.09076 -133.35576 32074 ft 518 kts 293°
2026-05-05 17:03 42.11964 -133.44452 32074 ft 518 kts 293°
2026-05-05 17:03 42.14849 -133.53345 32074 ft 517 kts 293°
2026-05-05 17:04 42.17721 -133.62223 32081 ft 517 kts 293°
2026-05-05 17:04 42.20567 -133.71063 32084 ft 517 kts 293°
2026-05-05 17:05 42.23426 -133.79966 32084 ft 517 kts 292°
2026-05-05 17:05 42.25816 -133.87433 32084 ft 518 kts 292°
2026-05-05 17:06 42.28666 -133.96363 32083 ft 518 kts 292°
2026-05-05 17:06 42.31514 -134.05312 32082 ft 518 kts 292°
2026-05-05 17:07 42.34349 -134.14271 32083 ft 519 kts 292°
2026-05-05 17:07 42.37184 -134.23236 32084 ft 518 kts 292°
2026-05-05 17:08 42.40010 -134.32200 32082 ft 518 kts 292°
2026-05-05 17:08 42.42810 -134.41119 32085 ft 518 kts 292°
2026-05-05 17:09 42.45619 -134.50102 32082 ft 518 kts 292°
2026-05-05 17:09 42.48421 -134.59087 32084 ft 518 kts 291°
2026-05-05 17:10 42.51212 -134.68076 32083 ft 518 kts 291°
2026-05-05 17:10 42.53999 -134.77081 32085 ft 518 kts 291°
2026-05-05 17:11 42.56781 -134.86098 32083 ft 518 kts 291°
2026-05-05 17:11 42.59557 -134.95121 32084 ft 518 kts 291°
2026-05-05 17:12 42.62325 -135.04152 32081 ft 518 kts 291°
2026-05-05 17:12 42.65085 -135.13189 32083 ft 518 kts 290°
2026-05-05 17:13 42.67842 -135.22253 32085 ft 519 kts 290°
2026-05-05 17:13 42.70576 -135.31267 32082 ft 519 kts 290°
2026-05-05 17:14 42.73321 -135.40348 32086 ft 519 kts 290°
2026-05-05 17:14 42.76058 -135.49431 32082 ft 519 kts 290°
2026-05-05 17:15 42.78783 -135.58521 32082 ft 519 kts 290°
2026-05-05 17:15 42.81504 -135.67616 32067 ft 518 kts 290°
2026-05-05 17:16 42.84218 -135.76714 32064 ft 518 kts 290°
2026-05-05 17:16 42.86922 -135.85822 32055 ft 518 kts 290°
2026-05-05 17:17 42.89619 -135.94940 32057 ft 518 kts 289°
2026-05-05 17:17 42.92290 -136.03998 32056 ft 518 kts 289°
2026-05-05 17:18 42.94970 -136.13121 32056 ft 518 kts 289°
2026-05-05 17:18 42.97641 -136.22243 32056 ft 517 kts 289°
2026-05-05 17:19 43.00301 -136.31362 32054 ft 517 kts 289°
2026-05-05 17:19 43.02953 -136.40484 32055 ft 517 kts 289°
2026-05-05 17:20 43.05596 -136.49614 32057 ft 516 kts 288°
2026-05-05 17:20 43.08231 -136.58745 32057 ft 516 kts 288°
2026-05-05 17:21 43.10863 -136.67897 32054 ft 516 kts 288°
2026-05-05 17:22 43.14795 -136.81626 32055 ft 516 kts 288°
2026-05-05 17:22 43.17404 -136.90784 32057 ft 516 kts 288°
2026-05-05 17:23 43.20002 -136.99945 32056 ft 516 kts 288°
2026-05-05 17:23 43.22593 -137.09105 32056 ft 515 kts 288°
2026-05-05 17:24 43.25174 -137.18265 32056 ft 515 kts 288°
2026-05-05 17:24 43.27752 -137.27431 32055 ft 514 kts 288°
2026-05-05 17:25 43.30301 -137.36544 32057 ft 514 kts 287°
2026-05-05 17:25 43.32852 -137.45712 32055 ft 514 kts 287°
2026-05-05 17:26 43.35400 -137.54885 32055 ft 514 kts 287°
2026-05-05 17:26 43.37941 -137.64063 32057 ft 513 kts 287°
2026-05-05 17:27 43.40473 -137.73250 32056 ft 514 kts 287°
2026-05-05 17:27 43.42998 -137.82450 32056 ft 514 kts 287°
2026-05-05 17:28 43.45514 -137.91649 32056 ft 514 kts 287°
2026-05-05 17:28 43.48028 -138.00864 32056 ft 514 kts 286°
2026-05-05 17:29 43.50530 -138.10087 32058 ft 513 kts 286°
2026-05-05 17:29 43.53021 -138.19301 32056 ft 513 kts 286°
2026-05-05 17:30 43.55507 -138.28525 32055 ft 513 kts 286°
2026-05-05 17:30 43.57981 -138.37747 32050 ft 512 kts 286°
2026-05-05 17:31 43.60446 -138.46966 32046 ft 512 kts 286°
2026-05-05 17:31 43.62885 -138.56113 32046 ft 511 kts 286°
2026-05-05 17:32 43.65330 -138.65321 32047 ft 510 kts 286°
2026-05-05 17:32 43.67761 -138.74526 32047 ft 510 kts 286°
2026-05-05 17:33 43.70202 -138.83791 32048 ft 509 kts 286°
2026-05-05 17:33 43.72597 -138.92927 32046 ft 509 kts 286°
2026-05-05 17:34 43.75001 -139.02127 32047 ft 507 kts 286°
2026-05-05 17:34 43.77395 -139.11321 32045 ft 507 kts 285°
2026-05-05 17:35 43.79773 -139.20494 32044 ft 506 kts 285°
2026-05-05 17:35 43.82140 -139.29657 32046 ft 505 kts 285°
2026-05-05 17:36 43.84498 -139.38825 32048 ft 505 kts 285°
2026-05-05 17:36 43.86849 -139.48002 32046 ft 505 kts 285°
2026-05-05 17:37 43.89177 -139.57117 32047 ft 505 kts 285°
2026-05-05 17:37 43.91510 -139.66295 32043 ft 505 kts 285°
2026-05-05 17:38 43.93839 -139.75489 32019 ft 505 kts 285°
2026-05-05 17:38 43.96156 -139.84683 32014 ft 504 kts 285°
2026-05-05 17:39 43.98469 -139.93882 32008 ft 504 kts 285°
2026-05-05 17:39 44.00981 -140.02991 32008 ft 508 kts 291°
2026-05-05 17:40 44.04158 -140.11777 32016 ft 509 kts 293°
2026-05-05 17:40 44.07355 -140.20493 32010 ft 509 kts 292°
2026-05-05 17:41 44.10541 -140.29300 32010 ft 510 kts 292°
2026-05-05 17:41 44.13705 -140.38138 32009 ft 510 kts 292°
2026-05-05 17:42 44.16850 -140.46982 32010 ft 510 kts 292°
2026-05-05 17:42 44.19988 -140.55835 32007 ft 509 kts 292°
2026-05-05 17:43 44.23119 -140.64685 32010 ft 509 kts 291°
2026-05-05 17:43 44.26246 -140.73547 32009 ft 509 kts 291°
2026-05-05 17:44 44.29368 -140.82420 32010 ft 510 kts 291°
2026-05-05 17:44 44.32479 -140.91315 32009 ft 510 kts 291°
2026-05-05 17:45 44.35587 -141.00227 32011 ft 510 kts 291°
2026-05-05 17:45 44.38673 -141.09091 32009 ft 510 kts 291°
2026-05-05 17:46 44.41773 -141.18025 32007 ft 511 kts 291°
2026-05-05 17:46 44.44866 -141.26973 31998 ft 510 kts 290°
2026-05-05 17:47 44.47948 -141.35912 32000 ft 510 kts 290°
2026-05-05 17:47 44.51022 -141.44863 32000 ft 510 kts 290°
2026-05-05 17:48 44.54087 -141.53826 31998 ft 510 kts 290°
2026-05-05 17:48 44.57149 -141.62797 32002 ft 510 kts 290°
2026-05-05 17:49 44.60202 -141.71772 32002 ft 510 kts 290°
2026-05-05 17:49 44.63251 -141.80770 32000 ft 510 kts 290°
2026-05-05 17:50 44.65778 -141.88255 32000 ft 510 kts 290°
2026-05-05 17:50 44.68810 -141.97263 32000 ft 510 kts 290°
2026-05-05 17:51 44.71839 -142.06281 32001 ft 510 kts 290°
2026-05-05 17:51 44.74863 -142.15315 32001 ft 510 kts 290°
2026-05-05 17:52 44.77876 -142.24355 31998 ft 510 kts 290°
2026-05-05 17:52 44.80885 -142.33409 32001 ft 510 kts 289°
2026-05-05 17:53 44.83883 -142.42468 32000 ft 510 kts 289°
2026-05-05 17:53 44.86872 -142.51528 32000 ft 510 kts 289°
2026-05-05 17:54 44.89854 -142.60597 32000 ft 510 kts 289°
2026-05-05 17:54 44.92808 -142.69611 31987 ft 510 kts 289°
2026-05-05 17:55 44.95771 -142.78701 31997 ft 510 kts 289°
2026-05-05 17:55 44.98732 -142.87789 31984 ft 509 kts 289°
2026-05-05 17:56 45.01679 -142.96864 31996 ft 508 kts 289°
2026-05-05 17:56 45.04620 -143.05963 31987 ft 508 kts 289°
2026-05-05 17:57 45.07549 -143.15059 31989 ft 508 kts 289°
2026-05-05 17:57 45.10472 -143.24172 31994 ft 509 kts 289°
2026-05-05 17:58 45.13390 -143.33296 31989 ft 509 kts 289°
2026-05-05 17:58 45.16303 -143.42438 31991 ft 509 kts 289°
2026-05-05 17:59 45.19207 -143.51585 31989 ft 508 kts 289°
2026-05-05 17:59 45.22084 -143.60670 31989 ft 508 kts 289°
2026-05-05 18:00 45.24973 -143.69830 31992 ft 508 kts 289°
2026-05-05 18:00 45.27853 -143.78997 31993 ft 508 kts 289°
2026-05-05 18:01 45.30728 -143.88176 31989 ft 508 kts 289°
2026-05-05 18:01 45.33594 -143.97372 31987 ft 508 kts 289°
2026-05-05 18:02 45.36452 -144.06564 31989 ft 509 kts 289°
2026-05-05 18:02 45.39307 -144.15782 31993 ft 509 kts 289°
2026-05-05 18:03 45.42158 -144.25010 31988 ft 510 kts 289°
2026-05-05 18:03 45.44999 -144.34258 31989 ft 510 kts 289°
2026-05-05 18:04 45.47834 -144.43514 31990 ft 510 kts 288°
2026-05-05 18:04 45.50666 -144.52782 31986 ft 511 kts 288°
2026-05-05 18:05 45.53491 -144.62079 31991 ft 510 kts 288°
2026-05-05 18:05 45.56311 -144.71381 31987 ft 510 kts 288°
2026-05-05 18:06 45.59102 -144.80618 31973 ft 510 kts 288°
2026-05-05 18:06 45.61902 -144.89926 31962 ft 510 kts 288°
2026-05-05 18:07 45.64691 -144.99236 31954 ft 510 kts 288°
2026-05-05 18:07 45.67475 -145.08554 31953 ft 509 kts 288°
2026-05-05 18:08 45.70246 -145.17871 31952 ft 509 kts 288°
2026-05-05 18:08 45.73012 -145.27202 31956 ft 509 kts 288°
2026-05-05 18:09 45.75770 -145.36537 31953 ft 510 kts 288°
2026-05-05 18:09 45.78522 -145.45896 31953 ft 510 kts 288°
2026-05-05 18:10 45.81265 -145.55263 31951 ft 510 kts 288°
2026-05-05 18:10 45.84005 -145.64648 31922 ft 510 kts 288°
2026-05-05 18:11 45.86737 -145.74043 31916 ft 510 kts 288°
2026-05-05 18:11 45.89442 -145.83374 31912 ft 510 kts 288°
2026-05-05 18:12 45.92158 -145.92773 31918 ft 509 kts 288°
2026-05-05 18:12 45.94865 -146.02191 31909 ft 510 kts 288°
2026-05-05 18:13 45.97564 -146.11618 31891 ft 510 kts 288°
2026-05-05 18:13 46.00257 -146.21054 31879 ft 510 kts 288°
2026-05-05 18:14 46.02942 -146.30498 31879 ft 509 kts 288°
2026-05-05 18:14 46.05617 -146.39948 31865 ft 509 kts 287°
2026-05-05 18:15 46.08282 -146.49397 31860 ft 509 kts 287°
2026-05-05 18:15 46.10939 -146.58857 31854 ft 509 kts 287°
2026-05-05 18:16 46.13586 -146.68310 31858 ft 508 kts 287°
2026-05-05 18:16 46.16204 -146.77698 31848 ft 508 kts 287°
2026-05-05 18:17 46.18828 -146.87149 31841 ft 507 kts 287°
2026-05-05 18:17 46.21439 -146.96591 31837 ft 506 kts 287°
2026-05-05 18:18 46.24037 -147.06020 31846 ft 505 kts 287°
2026-05-05 18:18 46.26625 -147.15444 31849 ft 504 kts 287°
2026-05-05 18:19 46.29201 -147.24866 31848 ft 503 kts 287°
2026-05-05 18:19 46.31762 -147.34277 31836 ft 502 kts 287°
2026-05-05 18:20 46.34314 -147.43691 31837 ft 502 kts 287°
2026-05-05 18:20 46.36855 -147.53099 31836 ft 502 kts 287°
2026-05-05 18:21 46.39387 -147.62505 31836 ft 501 kts 287°
2026-05-05 18:21 46.41893 -147.71856 31840 ft 501 kts 287°
2026-05-05 18:22 46.44408 -147.81282 31832 ft 501 kts 287°
2026-05-05 18:22 46.46919 -147.90727 31833 ft 501 kts 287°
2026-05-05 18:23 46.49421 -148.00168 31832 ft 501 kts 287°
2026-05-05 18:23 46.51914 -148.09624 31836 ft 501 kts 287°
2026-05-05 18:24 46.54396 -148.19080 31856 ft 500 kts 287°
2026-05-05 18:24 46.56870 -148.28529 31860 ft 500 kts 287°
2026-05-05 18:25 46.59331 -148.37973 31865 ft 500 kts 286°
2026-05-05 18:25 46.61786 -148.47437 31851 ft 500 kts 286°
2026-05-05 18:26 46.64217 -148.56849 31849 ft 500 kts 286°
2026-05-05 18:26 46.66661 -148.66333 31849 ft 500 kts 286°
2026-05-05 18:27 46.69091 -148.75818 31849 ft 500 kts 286°
2026-05-05 18:27 46.71510 -148.85301 31849 ft 499 kts 286°
2026-05-05 18:28 46.75128 -148.99547 31849 ft 499 kts 286°
2026-05-05 18:28 46.77530 -149.09054 31851 ft 499 kts 285°
2026-05-05 18:29 46.79924 -149.18572 31855 ft 499 kts 285°
2026-05-05 18:29 46.82295 -149.28035 31852 ft 499 kts 285°
2026-05-05 18:30 46.84674 -149.37568 31848 ft 499 kts 285°
2026-05-05 18:30 46.87040 -149.47096 31848 ft 499 kts 285°
2026-05-05 18:31 46.89399 -149.56633 31854 ft 499 kts 285°
2026-05-05 18:31 46.91750 -149.66174 31851 ft 499 kts 285°
2026-05-05 18:32 46.94089 -149.75716 31848 ft 498 kts 285°
2026-05-05 18:32 46.96420 -149.85260 31854 ft 498 kts 285°
2026-05-05 18:33 46.98746 -149.94818 31837 ft 498 kts 285°
2026-05-05 18:33 47.01406 -150.04209 31850 ft 503 kts 293°
2026-05-05 18:34 47.04712 -150.13239 31854 ft 502 kts 294°
2026-05-05 18:34 47.08031 -150.22250 31855 ft 502 kts 294°
2026-05-05 18:35 47.11311 -150.31290 31849 ft 501 kts 293°
2026-05-05 18:35 47.14558 -150.40346 31856 ft 501 kts 293°
2026-05-05 18:36 47.17793 -150.49408 31849 ft 501 kts 293°
2026-05-05 18:36 47.21020 -150.58474 31842 ft 500 kts 293°
2026-05-05 18:37 47.24238 -150.67545 31842 ft 500 kts 293°
2026-05-05 18:37 47.27428 -150.76568 31831 ft 500 kts 293°
2026-05-05 18:38 47.30630 -150.85649 31833 ft 499 kts 293°
2026-05-05 18:38 47.33304 -150.93261 31834 ft 499 kts 293°
2026-05-05 18:39 47.36483 -151.02349 31831 ft 498 kts 293°
2026-05-05 18:39 47.39636 -151.11373 31834 ft 498 kts 292°
2026-05-05 18:40 47.42800 -151.20469 31834 ft 498 kts 292°
2026-05-05 18:40 47.45958 -151.29573 31833 ft 497 kts 292°
2026-05-05 18:41 47.49103 -151.38679 31833 ft 497 kts 292°
2026-05-05 18:41 47.52237 -151.47784 31835 ft 497 kts 292°
2026-05-05 18:42 47.55359 -151.56892 31828 ft 496 kts 292°
2026-05-05 18:42 47.58474 -151.66007 31816 ft 496 kts 292°
2026-05-05 18:43 47.61583 -151.75140 31814 ft 496 kts 292°
2026-05-05 18:43 47.64679 -151.84270 31813 ft 496 kts 292°
2026-05-05 18:44 47.67750 -151.93337 31816 ft 495 kts 292°
2026-05-05 18:44 47.70831 -152.02479 31816 ft 495 kts 292°
2026-05-05 18:45 47.73922 -152.11681 31812 ft 495 kts 292°
2026-05-05 18:45 47.76964 -152.20773 31817 ft 495 kts 292°
2026-05-05 18:46 47.80018 -152.29938 31815 ft 494 kts 292°
2026-05-05 18:46 47.83066 -152.39111 31814 ft 495 kts 292°
2026-05-05 18:47 47.86106 -152.48299 31809 ft 495 kts 292°
2026-05-05 18:47 47.89146 -152.57507 31803 ft 495 kts 292°
2026-05-05 18:48 47.92173 -152.66712 31804 ft 495 kts 291°
2026-05-05 18:48 47.95190 -152.75925 31800 ft 494 kts 292°
2026-05-05 18:49 47.98199 -152.85144 31794 ft 494 kts 291°
2026-05-05 18:49 48.01196 -152.94357 31799 ft 493 kts 291°
2026-05-05 18:50 48.04178 -153.03567 31795 ft 492 kts 291°
2026-05-05 18:50 48.07155 -153.12792 31798 ft 492 kts 291°
2026-05-05 18:51 48.10121 -153.22017 31798 ft 492 kts 291°
2026-05-05 18:51 48.13080 -153.31248 31794 ft 492 kts 291°
2026-05-05 18:52 48.16012 -153.40432 31798 ft 491 kts 291°
2026-05-05 18:52 48.18953 -153.49679 31794 ft 491 kts 291°
2026-05-05 18:53 48.21889 -153.58938 31794 ft 491 kts 291°
2026-05-05 18:53 48.24811 -153.68198 31801 ft 491 kts 291°
2026-05-05 18:54 48.27729 -153.77472 31797 ft 491 kts 291°
2026-05-05 18:54 48.30641 -153.86754 31796 ft 492 kts 291°
2026-05-05 18:55 48.33546 -153.96058 31795 ft 492 kts 291°
2026-05-05 18:55 48.36441 -154.05369 31795 ft 492 kts 291°
2026-05-05 18:56 48.39332 -154.14682 31798 ft 491 kts 291°
2026-05-05 18:56 48.42197 -154.23947 31796 ft 491 kts 291°
2026-05-05 18:57 48.45056 -154.33257 31865 ft 489 kts 291°
2026-05-05 18:57 48.47912 -154.42578 31867 ft 490 kts 291°
2026-05-05 18:58 48.50758 -154.51899 31871 ft 490 kts 291°
2026-05-05 18:58 48.53605 -154.61246 31869 ft 490 kts 291°
2026-05-05 18:59 48.56438 -154.70597 31870 ft 490 kts 291°
2026-05-05 18:59 48.59262 -154.79953 31867 ft 489 kts 291°
2026-05-05 19:00 48.62059 -154.89250 31870 ft 489 kts 291°
2026-05-05 19:00 48.64864 -154.98613 31870 ft 488 kts 291°
2026-05-05 19:01 48.67658 -155.07970 31867 ft 488 kts 291°
2026-05-05 19:01 48.70442 -155.17338 31864 ft 487 kts 291°
2026-05-05 19:02 48.73213 -155.26698 31859 ft 487 kts 291°
2026-05-05 19:02 48.75979 -155.36066 31865 ft 486 kts 290°
2026-05-05 19:03 48.78732 -155.45432 31856 ft 486 kts 290°
2026-05-05 19:03 48.81476 -155.54809 31863 ft 486 kts 290°
2026-05-05 19:04 48.84214 -155.64190 31866 ft 486 kts 290°
2026-05-05 19:04 48.86940 -155.73568 31870 ft 485 kts 290°
2026-05-05 19:05 48.89658 -155.82955 31871 ft 485 kts 290°
2026-05-05 19:05 48.92367 -155.92351 31868 ft 485 kts 290°
2026-05-05 19:06 48.95067 -156.01760 31868 ft 485 kts 290°
2026-05-05 19:06 48.97760 -156.11169 31873 ft 485 kts 290°
2026-05-05 19:07 49.00427 -156.20528 31870 ft 485 kts 290°
2026-05-05 19:07 49.03108 -156.29979 31872 ft 486 kts 290°
2026-05-05 19:08 49.05781 -156.39434 31870 ft 485 kts 290°
2026-05-05 19:08 49.08447 -156.48901 31865 ft 485 kts 290°
2026-05-05 19:09 49.11101 -156.58369 31860 ft 486 kts 290°
2026-05-05 19:09 49.13752 -156.67853 31865 ft 485 kts 290°
2026-05-05 19:10 49.16392 -156.77338 31858 ft 485 kts 290°
2026-05-05 19:10 49.19026 -156.86840 31862 ft 485 kts 290°
2026-05-05 19:11 49.21650 -156.96352 31865 ft 485 kts 289°
2026-05-05 19:11 49.24265 -157.05877 31862 ft 485 kts 289°
2026-05-05 19:12 49.26857 -157.15341 31864 ft 485 kts 289°
2026-05-05 19:12 49.29457 -157.24871 31914 ft 484 kts 289°
2026-05-05 19:13 49.32050 -157.34412 31916 ft 485 kts 289°
2026-05-05 19:13 49.34628 -157.43954 31920 ft 485 kts 289°
2026-05-05 19:14 49.37203 -157.53516 31928 ft 485 kts 289°
2026-05-05 19:14 49.39770 -157.63096 31934 ft 485 kts 289°
2026-05-05 19:15 49.42337 -157.72681 31952 ft 485 kts 289°
2026-05-05 19:15 49.44887 -157.82265 31954 ft 485 kts 289°
2026-05-05 19:16 49.47415 -157.91815 31956 ft 485 kts 289°
2026-05-05 19:16 49.49952 -158.01431 31953 ft 485 kts 289°
2026-05-05 19:17 49.52477 -158.11045 31996 ft 486 kts 289°
2026-05-05 19:17 49.53741 -158.15871 32227 ft 486 kts 289°
2026-05-05 19:17 49.55001 -158.20690 32512 ft 484 kts 289°
2026-05-05 19:18 49.56255 -158.25487 32789 ft 482 kts 288°
2026-05-05 19:18 49.57498 -158.30277 33035 ft 480 kts 288°
2026-05-05 19:18 49.58738 -158.35054 33229 ft 480 kts 288°
2026-05-05 19:18 49.59976 -158.39829 33415 ft 480 kts 288°
2026-05-05 19:19 49.61217 -158.44623 33635 ft 480 kts 288°
2026-05-05 19:19 49.62449 -158.49394 33838 ft 479 kts 288°
2026-05-05 19:19 49.64904 -158.58946 33964 ft 478 kts 288°
2026-05-05 19:20 49.67332 -158.68421 33973 ft 477 kts 288°
2026-05-05 19:20 49.69759 -158.77944 33976 ft 476 kts 288°
2026-05-05 19:21 49.72182 -158.87471 33970 ft 476 kts 288°
2026-05-05 19:21 49.74594 -158.97004 33973 ft 477 kts 288°
2026-05-05 19:22 49.77003 -159.06581 33974 ft 478 kts 288°
2026-05-05 19:22 49.79412 -159.16178 33976 ft 479 kts 288°
2026-05-05 19:23 49.81821 -159.25821 33965 ft 480 kts 288°
2026-05-05 19:23 49.84220 -159.35471 33955 ft 480 kts 288°
2026-05-05 19:24 49.86619 -159.45150 33961 ft 481 kts 288°
2026-05-05 19:24 49.88605 -159.53216 33962 ft 481 kts 288°
2026-05-05 19:25 49.90992 -159.62928 33960 ft 481 kts 288°
2026-05-05 19:25 49.93366 -159.72637 33964 ft 481 kts 288°
2026-05-05 19:26 49.95732 -159.82360 33961 ft 481 kts 287°
2026-05-05 19:26 49.98090 -159.92081 33964 ft 481 kts 287°
2026-05-05 19:27 50.00324 -160.01849 33948 ft 478 kts 282°
2026-05-05 19:27 50.01807 -160.11880 33965 ft 476 kts 279°
2026-05-05 19:28 50.03203 -160.21935 33962 ft 476 kts 279°
2026-05-05 19:28 50.04617 -160.32002 33969 ft 476 kts 279°
2026-05-05 19:29 50.06033 -160.42014 33962 ft 477 kts 279°
2026-05-05 19:29 50.07459 -160.52097 33966 ft 478 kts 279°
2026-05-05 19:30 50.08879 -160.62204 34015 ft 477 kts 279°
2026-05-05 19:30 50.10291 -160.72312 34024 ft 478 kts 279°
2026-05-05 19:31 50.11694 -160.82459 34038 ft 479 kts 279°
2026-05-05 19:31 50.13094 -160.92627 34029 ft 481 kts 279°
2026-05-05 19:32 50.14485 -161.02830 34027 ft 481 kts 279°
2026-05-05 19:32 50.15872 -161.13066 34037 ft 482 kts 279°
2026-05-05 19:33 50.17251 -161.23317 34029 ft 483 kts 279°
2026-05-05 19:33 50.18625 -161.33586 34025 ft 484 kts 279°
2026-05-05 19:34 50.19993 -161.43881 34025 ft 485 kts 279°
2026-05-05 19:35 50.22021 -161.59307 34036 ft 486 kts 279°
2026-05-05 19:35 50.23368 -161.69650 34027 ft 486 kts 279°
2026-05-05 19:36 50.24706 -161.80011 34032 ft 486 kts 279°
2026-05-05 19:36 50.26038 -161.90373 34021 ft 486 kts 279°
2026-05-05 19:37 50.27361 -162.00739 34028 ft 486 kts 279°
2026-05-05 19:37 50.28675 -162.11115 34030 ft 486 kts 279°
2026-05-05 19:38 50.29971 -162.21490 34030 ft 486 kts 279°
2026-05-05 19:38 50.31264 -162.31878 34032 ft 486 kts 279°
2026-05-05 19:39 50.32550 -162.42256 34068 ft 486 kts 279°
2026-05-05 19:39 50.33821 -162.52643 34072 ft 486 kts 278°
2026-05-05 19:40 50.35078 -162.62975 34075 ft 486 kts 279°
2026-05-05 19:40 50.36335 -162.73389 34074 ft 487 kts 279°
2026-05-05 19:41 50.37584 -162.83811 34129 ft 486 kts 279°
2026-05-05 19:41 50.38824 -162.94225 34139 ft 487 kts 279°
2026-05-05 19:42 50.40055 -163.04672 34142 ft 488 kts 279°
2026-05-05 19:42 50.41277 -163.15138 34146 ft 488 kts 279°
2026-05-05 19:43 50.42489 -163.25602 34150 ft 488 kts 279°
2026-05-05 19:43 50.43696 -163.36084 34148 ft 488 kts 279°
2026-05-05 19:44 50.44891 -163.46578 34157 ft 488 kts 279°
2026-05-05 19:44 50.46077 -163.57064 34165 ft 488 kts 279°
2026-05-05 19:45 50.47253 -163.67570 34168 ft 489 kts 279°
2026-05-05 19:45 50.48424 -163.78082 34165 ft 489 kts 279°
2026-05-05 19:46 50.49587 -163.88620 34168 ft 489 kts 279°
2026-05-05 19:46 50.50737 -163.99156 34167 ft 490 kts 279°
2026-05-05 19:47 50.51880 -164.09712 34165 ft 490 kts 279°
2026-05-05 19:47 50.53013 -164.20278 34168 ft 490 kts 279°
2026-05-05 19:48 50.54141 -164.30855 34166 ft 491 kts 278°
2026-05-05 19:48 50.55255 -164.41437 34164 ft 490 kts 278°
2026-05-05 19:49 50.56352 -164.51942 34166 ft 490 kts 278°
2026-05-05 19:49 50.57446 -164.62517 34168 ft 489 kts 278°
2026-05-05 19:50 50.58530 -164.73095 34173 ft 489 kts 278°
2026-05-05 19:50 50.59603 -164.83666 34176 ft 490 kts 278°
2026-05-05 19:51 50.60674 -164.94260 34174 ft 490 kts 278°
2026-05-05 19:51 50.61730 -165.04857 34178 ft 490 kts 278°
2026-05-05 19:52 50.62776 -165.15455 34175 ft 490 kts 278°
2026-05-05 19:52 50.63813 -165.26066 34177 ft 490 kts 278°
2026-05-05 19:53 50.64838 -165.36678 34174 ft 490 kts 278°
2026-05-05 19:53 50.65859 -165.47308 34176 ft 490 kts 278°
2026-05-05 19:54 50.66863 -165.57868 34175 ft 490 kts 278°
2026-05-05 19:54 50.67861 -165.68515 34176 ft 491 kts 278°
2026-05-05 19:55 50.68854 -165.79163 34175 ft 491 kts 278°
2026-05-05 19:55 50.69838 -165.89816 34176 ft 490 kts 278°
2026-05-05 19:56 50.70806 -166.00474 34176 ft 490 kts 278°
2026-05-05 19:56 50.71766 -166.11124 34176 ft 490 kts 278°
2026-05-05 19:57 50.72713 -166.21701 34174 ft 489 kts 278°
2026-05-05 19:57 50.73654 -166.32347 34176 ft 490 kts 278°
2026-05-05 19:58 50.74582 -166.43005 34176 ft 490 kts 278°
2026-05-05 19:58 50.75505 -166.53676 34186 ft 490 kts 278°
2026-05-05 19:59 50.76416 -166.64331 34214 ft 490 kts 278°
2026-05-05 19:59 50.77317 -166.74991 34212 ft 490 kts 278°
2026-05-05 20:00 50.78204 -166.85607 34217 ft 490 kts 278°
2026-05-05 20:00 50.79088 -166.96291 34208 ft 490 kts 278°
2026-05-05 20:01 50.79962 -167.06981 34215 ft 490 kts 278°
2026-05-05 20:01 50.80824 -167.17672 34219 ft 490 kts 278°
2026-05-05 20:02 50.81676 -167.28343 34202 ft 489 kts 278°
2026-05-05 20:02 50.82520 -167.39027 34213 ft 488 kts 278°
2026-05-05 20:03 50.83346 -167.49626 34215 ft 488 kts 278°
2026-05-05 20:03 50.84168 -167.60287 34206 ft 488 kts 278°
2026-05-05 20:04 50.84976 -167.70944 34206 ft 488 kts 278°
2026-05-05 20:04 50.85779 -167.81616 34211 ft 488 kts 278°
2026-05-05 20:05 50.86571 -167.92300 34206 ft 488 kts 278°
2026-05-05 20:05 50.87353 -168.02975 34211 ft 488 kts 278°
2026-05-05 20:06 50.88124 -168.13654 34207 ft 488 kts 278°
2026-05-05 20:06 50.88887 -168.24327 34218 ft 487 kts 278°
2026-05-05 20:07 50.89639 -168.34998 34212 ft 487 kts 278°
2026-05-05 20:07 50.90380 -168.45653 34215 ft 487 kts 278°
2026-05-05 20:08 50.91111 -168.56314 34226 ft 487 kts 278°
2026-05-05 20:08 50.91835 -168.66989 34236 ft 487 kts 278°
2026-05-05 20:09 50.92541 -168.77581 34243 ft 487 kts 278°
2026-05-05 20:09 50.93243 -168.88264 34238 ft 487 kts 278°
2026-05-05 20:10 50.93937 -168.98975 34247 ft 488 kts 278°
2026-05-05 20:10 50.94620 -169.09677 34234 ft 488 kts 278°
2026-05-05 20:11 50.95296 -169.20373 34238 ft 487 kts 278°
2026-05-05 20:11 50.95956 -169.31007 34237 ft 487 kts 278°
2026-05-05 20:12 50.96609 -169.41687 34236 ft 486 kts 278°
2026-05-05 20:12 50.97252 -169.52361 34239 ft 486 kts 278°
2026-05-05 20:13 50.97781 -169.61291 34234 ft 485 kts 278°
2026-05-05 20:13 50.98405 -169.71959 34245 ft 485 kts 278°
2026-05-05 20:14 50.99020 -169.82633 34239 ft 485 kts 278°
2026-05-05 20:14 50.99624 -169.93239 34242 ft 485 kts 278°
2026-05-05 20:15 51.00202 -170.03911 34239 ft 486 kts 278°
2026-05-05 20:15 51.00659 -170.14597 34243 ft 485 kts 277°
2026-05-05 20:16 51.01067 -170.25260 34242 ft 483 kts 277°
2026-05-05 20:16 51.01475 -170.35886 34246 ft 481 kts 277°
2026-05-05 20:17 51.01888 -170.46477 34248 ft 480 kts 278°
2026-05-05 20:17 51.02295 -170.57039 34251 ft 479 kts 278°
2026-05-05 20:18 51.02690 -170.67589 34246 ft 478 kts 278°
2026-05-05 20:18 51.03076 -170.78118 34248 ft 477 kts 278°
2026-05-05 20:19 51.03453 -170.88642 34248 ft 477 kts 278°
2026-05-05 20:19 51.03818 -170.99149 34249 ft 476 kts 278°
2026-05-05 20:20 51.04172 -171.09636 34257 ft 474 kts 278°
2026-05-05 20:20 51.04515 -171.20095 34245 ft 474 kts 278°
2026-05-05 20:21 51.04850 -171.30537 34249 ft 473 kts 278°
2026-05-05 20:21 51.05173 -171.40956 34250 ft 472 kts 278°
2026-05-05 20:22 51.05486 -171.51353 34246 ft 470 kts 278°
2026-05-05 20:22 51.05793 -171.61729 34248 ft 469 kts 278°
2026-05-05 20:23 51.06085 -171.72028 34249 ft 469 kts 278°
2026-05-05 20:23 51.06372 -171.82382 34257 ft 469 kts 278°
2026-05-05 20:24 51.06650 -171.92739 34258 ft 469 kts 278°
2026-05-05 20:24 51.06915 -172.03097 34260 ft 469 kts 278°
2026-05-05 20:25 51.07161 -172.13352 34254 ft 457 kts 278°
2026-05-05 20:25 51.07399 -172.23369 34257 ft 453 kts 279°
2026-05-05 20:26 51.07640 -172.33354 34261 ft 452 kts 279°
2026-05-05 20:26 51.07868 -172.43335 34263 ft 452 kts 279°
2026-05-05 20:27 51.08086 -172.53348 34260 ft 453 kts 279°
2026-05-05 20:27 51.08290 -172.63354 34260 ft 452 kts 279°
2026-05-05 20:28 51.08480 -172.73344 34255 ft 451 kts 279°
2026-05-05 20:28 51.08667 -172.83279 34257 ft 448 kts 279°
2026-05-05 20:29 51.08849 -172.93151 34257 ft 445 kts 279°
2026-05-05 20:29 51.09018 -173.02959 34255 ft 441 kts 279°
2026-05-05 20:30 51.09174 -173.12695 34259 ft 438 kts 279°
2026-05-05 20:30 51.09324 -173.22344 34260 ft 435 kts 279°
2026-05-05 20:31 51.09463 -173.31884 34255 ft 433 kts 279°
2026-05-05 20:31 51.09597 -173.41446 34258 ft 432 kts 279°
2026-05-05 20:32 51.09732 -173.50983 34259 ft 430 kts 280°
2026-05-05 20:32 51.09847 -173.60480 34257 ft 429 kts 279°
2026-05-05 20:33 51.09955 -173.69940 34256 ft 427 kts 280°
2026-05-05 20:33 51.10054 -173.79383 34259 ft 426 kts 280°
2026-05-05 20:34 51.10147 -173.88825 34256 ft 427 kts 280°
2026-05-05 20:34 51.10234 -173.98257 34258 ft 427 kts 279°
2026-05-05 20:35 51.10314 -174.07675 34266 ft 420 kts 280°
2026-05-05 20:35 51.10367 -174.16848 34256 ft 412 kts 279°
2026-05-05 20:36 51.10406 -174.25936 34260 ft 410 kts 280°
2026-05-05 20:36 51.10491 -174.34920 34245 ft 409 kts 280°
2026-05-05 20:37 51.10546 -174.44004 34256 ft 411 kts 280°
2026-05-05 20:37 51.10585 -174.53109 34246 ft 412 kts 279°
2026-05-05 20:38 51.10613 -174.62221 34258 ft 412 kts 279°
2026-05-05 20:38 51.10635 -174.71346 34248 ft 410 kts 279°
2026-05-05 20:39 51.10665 -174.80400 34247 ft 409 kts 279°
2026-05-05 20:39 51.10672 -174.89433 34253 ft 407 kts 279°
2026-05-05 20:40 51.10684 -174.98422 34252 ft 405 kts 279°
2026-05-05 20:40 51.10679 -175.07318 34247 ft 403 kts 280°
2026-05-05 20:41 51.10701 -175.16229 34248 ft 402 kts 279°
2026-05-05 20:41 51.10685 -175.25116 34243 ft 401 kts 279°
2026-05-05 20:42 51.10645 -175.33984 34239 ft 400 kts 278°
2026-05-05 20:42 51.10610 -175.42830 34244 ft 399 kts 279°
2026-05-05 20:43 51.10552 -175.51676 34235 ft 398 kts 279°
2026-05-05 20:43 51.10532 -175.60481 34234 ft 396 kts 279°
2026-05-05 20:44 51.10482 -175.69210 34252 ft 395 kts 278°
2026-05-05 20:44 51.10319 -175.77895 34259 ft 390 kts 280°
2026-05-05 20:45 51.10402 -175.90904 34245 ft 395 kts 279°
2026-05-05 20:45 51.10359 -175.99729 34261 ft 400 kts 277°
2026-05-05 20:46 51.10206 -176.08529 34241 ft 399 kts 277°
2026-05-05 20:46 51.10121 -176.17207 34264 ft 388 kts 278°
2026-05-05 20:47 51.10038 -176.25901 34256 ft 397 kts 277°
2026-05-05 20:47 51.09919 -176.34690 34261 ft 398 kts 277°
2026-05-05 20:48 51.09774 -176.43536 34229 ft 400 kts 277°
2026-05-05 20:48 51.09643 -176.52346 34217 ft 393 kts 277°
2026-05-05 20:49 51.09541 -176.61005 34229 ft 390 kts 277°
2026-05-05 20:49 51.09509 -176.69669 34237 ft 394 kts 277°
2026-05-05 20:50 51.09412 -176.76908 34235 ft 395 kts 276°
2026-05-05 20:50 51.09209 -176.87138 34208 ft 395 kts 276°
2026-05-05 20:51 51.09015 -176.95760 34232 ft 391 kts 276°
2026-05-05 20:51 51.08888 -177.04443 34240 ft 396 kts 276°
2026-05-05 20:52 51.08719 -177.13226 34223 ft 398 kts 276°
2026-05-05 20:52 51.08557 -177.22056 34232 ft 400 kts 276°
2026-05-05 20:53 51.08390 -177.30946 34238 ft 402 kts 275°
2026-05-05 20:53 51.08213 -177.39805 34236 ft 400 kts 275°
2026-05-05 20:54 51.08038 -177.48636 34229 ft 399 kts 275°
2026-05-05 20:54 51.07844 -177.57443 34234 ft 398 kts 275°
2026-05-05 20:55 51.07696 -177.66176 34242 ft 394 kts 275°
2026-05-05 20:55 51.07469 -177.74909 34233 ft 395 kts 275°
2026-05-05 20:56 51.07252 -177.83629 34237 ft 395 kts 275°
2026-05-05 20:56 51.07063 -177.90918 34238 ft 396 kts 275°
2026-05-05 20:57 51.06840 -177.99683 34230 ft 398 kts 275°
2026-05-05 20:57 51.06619 -178.08494 34234 ft 400 kts 274°
2026-05-05 20:58 51.06386 -178.17351 34234 ft 400 kts 273°
2026-05-05 20:58 51.06132 -178.26181 34236 ft 400 kts 273°
2026-05-05 20:59 51.05886 -178.35036 34231 ft 400 kts 273°
2026-05-05 20:59 51.05625 -178.43865 34222 ft 400 kts 273°
2026-05-05 21:00 51.05355 -178.52673 34228 ft 398 kts 273°
2026-05-05 21:00 51.05089 -178.61433 34225 ft 396 kts 274°
2026-05-05 21:01 51.04855 -178.70158 34236 ft 396 kts 272°
2026-05-05 21:01 51.04576 -178.78888 34242 ft 399 kts 272°
2026-05-05 21:02 51.04278 -178.87702 34234 ft 399 kts 272°
2026-05-05 21:02 51.03927 -178.96495 34237 ft 397 kts 272°
2026-05-05 21:03 51.03643 -179.05248 34234 ft 397 kts 272°
2026-05-05 21:03 51.03335 -179.14010 34226 ft 397 kts 272°
2026-05-05 21:04 51.03035 -179.22781 34244 ft 399 kts 272°
2026-05-05 21:04 51.02730 -179.31578 34232 ft 398 kts 271°
2026-05-05 21:05 51.02398 -179.40362 34231 ft 398 kts 271°
2026-05-05 21:05 51.02061 -179.49126 34238 ft 397 kts 271°
2026-05-05 21:06 51.01744 -179.57829 34233 ft 396 kts 271°
2026-05-05 21:06 51.01395 -179.66564 34237 ft 396 kts 271°
2026-05-05 21:07 51.01022 -179.75318 34226 ft 398 kts 270°
2026-05-05 21:07 51.00642 -179.84084 34221 ft 398 kts 270°
2026-05-05 21:08 51.00317 -179.92883 34223 ft 400 kts 270°
2026-05-05 21:08 50.99930 179.98316 34222 ft 399 kts 270°
2026-05-05 21:09 50.99490 179.89556 34172 ft 398 kts 269°
2026-05-05 21:09 50.98979 179.80775 34079 ft 402 kts 268°
2026-05-05 21:10 50.98416 179.71952 33970 ft 402 kts 268°
2026-05-05 21:10 50.97894 179.63133 33875 ft 402 kts 268°
2026-05-05 21:11 50.97368 179.54361 33869 ft 398 kts 268°
2026-05-05 21:11 50.96842 179.45629 33865 ft 398 kts 268°
2026-05-05 21:12 50.96310 179.36877 33871 ft 398 kts 268°
2026-05-05 21:12 50.95776 179.28143 33872 ft 398 kts 268°
2026-05-05 21:13 50.95240 179.19397 33870 ft 399 kts 267°
2026-05-05 21:13 50.94681 179.10633 33858 ft 401 kts 266°
2026-05-05 21:14 50.94118 179.01794 33837 ft 410 kts 264°
2026-05-05 21:14 50.93536 178.92733 33832 ft 416 kts 264°
2026-05-05 21:15 50.92933 178.83567 33827 ft 419 kts 263°
2026-05-05 21:15 50.92322 178.74357 33823 ft 421 kts 263°
2026-05-05 21:16 50.91706 178.65142 33822 ft 420 kts 263°
2026-05-05 21:16 50.91082 178.55946 33822 ft 419 kts 263°
2026-05-05 21:17 50.90454 178.46778 33822 ft 418 kts 263°
2026-05-05 21:17 50.89822 178.37646 33822 ft 417 kts 263°
2026-05-05 21:18 50.89184 178.28529 33822 ft 416 kts 262°
2026-05-05 21:18 50.88537 178.19428 33825 ft 416 kts 262°
2026-05-05 21:19 50.87884 178.10334 33821 ft 416 kts 262°
2026-05-05 21:19 50.87224 178.01236 33826 ft 416 kts 262°
2026-05-05 21:20 50.86555 177.92122 33823 ft 417 kts 261°
2026-05-05 21:20 50.85878 177.82983 33825 ft 418 kts 261°
2026-05-05 21:21 50.85194 177.73833 33826 ft 419 kts 261°
2026-05-05 21:21 50.84498 177.64685 33825 ft 418 kts 261°
2026-05-05 21:22 50.83799 177.55543 33823 ft 418 kts 261°
2026-05-05 21:22 50.83098 177.46477 33832 ft 418 kts 261°
2026-05-05 21:23 50.82385 177.37361 33833 ft 417 kts 260°
2026-05-05 21:23 50.81665 177.28267 33831 ft 417 kts 260°
2026-05-05 21:24 50.80940 177.19174 33833 ft 417 kts 260°
2026-05-05 21:24 50.80210 177.10104 33832 ft 416 kts 259°
2026-05-05 21:25 50.79469 177.01030 33833 ft 416 kts 259°
2026-05-05 21:25 50.78728 176.91961 33834 ft 416 kts 259°
2026-05-05 21:26 50.77978 176.82905 33826 ft 415 kts 259°
2026-05-05 21:26 50.77222 176.73882 33839 ft 414 kts 259°
2026-05-05 21:27 50.76457 176.64854 33835 ft 415 kts 259°
2026-05-05 21:27 50.75685 176.55829 33833 ft 415 kts 259°
2026-05-05 21:28 50.74910 176.46798 33833 ft 415 kts 258°
2026-05-05 21:28 50.74123 176.37783 33832 ft 415 kts 258°
2026-05-05 21:29 50.73332 176.28769 33833 ft 415 kts 258°
2026-05-05 21:29 50.72538 176.19762 33834 ft 414 kts 258°
2026-05-05 21:30 50.71737 176.10812 33832 ft 414 kts 258°
2026-05-05 21:30 50.70925 176.01826 33834 ft 414 kts 258°
2026-05-05 21:31 50.70108 175.92844 33834 ft 413 kts 257°
2026-05-05 21:31 50.69287 175.83873 33837 ft 413 kts 257°
2026-05-05 21:32 50.68456 175.74905 33834 ft 413 kts 257°
2026-05-05 21:32 50.67617 175.65936 33837 ft 413 kts 257°
2026-05-05 21:33 50.66773 175.56969 33831 ft 414 kts 257°
2026-05-05 21:33 50.65925 175.48008 33833 ft 413 kts 256°
2026-05-05 21:34 50.65064 175.39053 33832 ft 413 kts 256°
2026-05-05 21:34 50.64202 175.30105 33835 ft 413 kts 256°
2026-05-05 21:35 50.63329 175.21156 33835 ft 413 kts 256°
2026-05-05 21:35 50.62455 175.12258 33834 ft 414 kts 255°
2026-05-05 21:36 50.61571 175.03299 33833 ft 414 kts 255°
2026-05-05 21:36 50.60676 174.94342 33832 ft 414 kts 255°
2026-05-05 21:37 50.59776 174.85386 33823 ft 415 kts 255°
2026-05-05 21:37 50.58867 174.76426 33824 ft 415 kts 254°
2026-05-05 21:38 50.57952 174.67469 33825 ft 414 kts 254°
2026-05-05 21:38 50.57029 174.58528 33824 ft 414 kts 254°
2026-05-05 21:39 50.56102 174.49582 33824 ft 415 kts 253°
2026-05-05 21:39 50.55167 174.40631 33825 ft 415 kts 253°
2026-05-05 21:40 50.54225 174.31694 33824 ft 415 kts 253°
2026-05-05 21:40 50.53275 174.22757 33824 ft 415 kts 253°
2026-05-05 21:41 50.52320 174.13821 33826 ft 414 kts 253°
2026-05-05 21:41 50.51520 174.06396 33823 ft 414 kts 253°
2026-05-05 21:42 50.50395 173.96026 33800 ft 414 kts 252°
2026-05-05 21:42 50.49575 173.88552 33796 ft 415 kts 252°
2026-05-05 21:43 50.48588 173.79611 33792 ft 416 kts 252°
2026-05-05 21:43 50.47594 173.70657 33787 ft 417 kts 252°
2026-05-05 21:44 50.46595 173.61691 33788 ft 417 kts 252°
2026-05-05 21:44 50.45587 173.52710 33786 ft 418 kts 252°
2026-05-05 21:45 50.44571 173.43783 33788 ft 419 kts 252°
2026-05-05 21:45 50.43540 173.34781 33786 ft 420 kts 252°
2026-05-05 21:46 50.42504 173.25758 33783 ft 420 kts 252°
2026-05-05 21:46 50.41457 173.16726 33785 ft 421 kts 252°
2026-05-05 21:47 50.40401 173.07683 33787 ft 422 kts 252°
2026-05-05 21:47 50.39339 172.98632 33789 ft 423 kts 252°
2026-05-05 21:48 50.38267 172.89565 33777 ft 424 kts 252°
2026-05-05 21:48 50.37180 172.80466 33769 ft 425 kts 251°
2026-05-05 21:49 50.36091 172.71402 33781 ft 427 kts 251°
2026-05-05 21:49 50.34990 172.62257 33782 ft 427 kts 251°
2026-05-05 21:50 50.33875 172.53112 33780 ft 428 kts 251°
2026-05-05 21:50 50.32756 172.43964 33765 ft 428 kts 251°
2026-05-05 21:51 50.31629 172.34821 33772 ft 428 kts 251°
2026-05-05 21:51 50.30497 172.25689 33778 ft 427 kts 251°
2026-05-05 21:52 50.28782 172.12017 33772 ft 427 kts 251°
2026-05-05 21:53 50.27633 172.02914 33769 ft 427 kts 251°
2026-05-05 21:53 50.26476 171.93817 33762 ft 426 kts 251°
2026-05-05 21:54 50.25311 171.84726 33769 ft 427 kts 251°
2026-05-05 21:54 50.24139 171.75624 33774 ft 427 kts 251°
2026-05-05 21:55 50.22955 171.66518 33762 ft 428 kts 251°
2026-05-05 21:55 50.21764 171.57385 33762 ft 430 kts 251°
2026-05-05 21:56 50.20559 171.48228 33761 ft 431 kts 251°
2026-05-05 21:56 50.19345 171.39032 33764 ft 433 kts 251°
2026-05-05 21:57 50.18127 171.29862 33764 ft 435 kts 251°
2026-05-05 21:57 50.16883 171.20603 33762 ft 437 kts 251°
2026-05-05 21:58 50.15629 171.11304 33746 ft 439 kts 251°
2026-05-05 21:58 50.14363 171.01972 33747 ft 441 kts 251°
2026-05-05 21:59 50.13085 170.92610 33747 ft 442 kts 251°
2026-05-05 21:59 50.11793 170.83211 33747 ft 445 kts 251°
2026-05-05 22:00 50.10487 170.73767 33738 ft 447 kts 251°
2026-05-05 22:00 50.09167 170.64282 33742 ft 449 kts 251°
2026-05-05 22:01 50.07830 170.54761 33744 ft 451 kts 252°
2026-05-05 22:01 50.06488 170.45218 33740 ft 452 kts 252°
2026-05-05 22:02 50.05141 170.35711 33731 ft 453 kts 252°
2026-05-05 22:02 50.03777 170.26157 33733 ft 452 kts 252°
2026-05-05 22:03 50.02406 170.16608 33731 ft 452 kts 252°
2026-05-05 22:03 50.00997 170.07081 33722 ft 450 kts 249°
2026-05-05 22:04 49.98798 169.98075 33725 ft 443 kts 241°
2026-05-05 22:04 49.95890 169.89678 33726 ft 439 kts 235°
2026-05-05 22:05 49.92623 169.81664 33715 ft 440 kts 234°
2026-05-05 22:05 49.89356 169.73711 33712 ft 440 kts 234°
2026-05-05 22:06 49.86076 169.65700 33712 ft 440 kts 234°
2026-05-05 22:06 49.82804 169.57703 33710 ft 440 kts 234°
2026-05-05 22:07 49.79529 169.49710 33703 ft 439 kts 234°
2026-05-05 22:07 49.76258 169.41741 33702 ft 438 kts 234°
2026-05-05 22:08 49.72983 169.33796 33697 ft 438 kts 234°
2026-05-05 22:08 49.69706 169.25867 33691 ft 438 kts 235°
2026-05-05 22:09 49.66421 169.17947 33693 ft 438 kts 235°
2026-05-05 22:09 49.63124 169.10020 33692 ft 439 kts 235°
2026-05-05 22:10 49.59818 169.02098 33685 ft 440 kts 235°
2026-05-05 22:10 49.56524 168.94223 33686 ft 441 kts 235°
2026-05-05 22:11 49.53192 168.86285 33669 ft 442 kts 235°
2026-05-05 22:11 49.49848 168.78338 33666 ft 443 kts 235°
2026-05-05 22:12 49.46488 168.70373 33688 ft 445 kts 235°
2026-05-05 22:12 49.43111 168.62402 33668 ft 446 kts 235°
2026-05-05 22:13 49.39716 168.54410 33663 ft 447 kts 235°
2026-05-05 22:13 49.36308 168.46411 33660 ft 448 kts 235°
2026-05-05 22:14 49.32888 168.38409 33650 ft 449 kts 235°
2026-05-05 22:14 49.29461 168.30411 33646 ft 449 kts 235°
2026-05-05 22:15 49.26030 168.22425 33643 ft 448 kts 235°
2026-05-05 22:15 49.22596 168.14460 33636 ft 448 kts 235°
2026-05-05 22:16 49.19159 168.06518 33638 ft 447 kts 234°
2026-05-05 22:16 49.15748 167.98654 33637 ft 447 kts 235°
2026-05-05 22:17 49.12304 167.90732 33626 ft 449 kts 235°
2026-05-05 22:17 49.08834 167.82779 33634 ft 451 kts 235°
2026-05-05 22:18 49.05344 167.74807 33631 ft 453 kts 235°
2026-05-05 22:18 49.01838 167.66818 33622 ft 453 kts 235°
2026-05-05 22:19 48.98331 167.58845 33617 ft 453 kts 235°
2026-05-05 22:19 48.94819 167.50893 33617 ft 452 kts 235°
2026-05-05 22:20 48.91313 167.42977 33614 ft 451 kts 235°
2026-05-05 22:20 48.87810 167.35088 33608 ft 449 kts 235°
2026-05-05 22:21 48.84313 167.27237 33609 ft 448 kts 235°
2026-05-05 22:21 48.80817 167.19408 33610 ft 448 kts 235°
2026-05-05 22:22 48.77317 167.11597 33604 ft 447 kts 235°
2026-05-05 22:22 48.73829 167.03837 33599 ft 448 kts 235°
2026-05-05 22:23 48.70308 166.96019 33601 ft 449 kts 235°
2026-05-05 22:23 48.66780 166.88216 33600 ft 450 kts 235°
2026-05-05 22:24 48.63236 166.80404 33594 ft 451 kts 235°
2026-05-05 22:24 48.59684 166.72591 33590 ft 451 kts 235°
2026-05-05 22:25 48.56132 166.64797 33591 ft 450 kts 235°
2026-05-05 22:25 48.52577 166.57015 33591 ft 450 kts 235°
2026-05-05 22:26 48.49013 166.49244 33590 ft 450 kts 235°
2026-05-05 22:26 48.45451 166.41491 33591 ft 450 kts 235°
2026-05-05 22:27 48.41882 166.33758 33589 ft 449 kts 235°
2026-05-05 22:27 48.38310 166.26038 33592 ft 450 kts 235°
2026-05-05 22:27 48.36516 166.22173 33703 ft 452 kts 235°
2026-05-05 22:28 48.34721 166.18300 33951 ft 451 kts 235°
2026-05-05 22:28 48.32955 166.14494 34261 ft 448 kts 235°
2026-05-05 22:28 48.31750 166.11904 34440 ft 447 kts 235°
2026-05-05 22:28 48.29388 166.06836 34670 ft 448 kts 235°
2026-05-05 22:29 48.27598 166.03005 34807 ft 449 kts 235°
2026-05-05 22:29 48.26387 166.00413 34922 ft 449 kts 235°
2026-05-05 22:29 48.24591 165.96577 35101 ft 448 kts 235°
2026-05-05 22:29 48.22798 165.92749 35336 ft 446 kts 235°
2026-05-05 22:30 48.21041 165.89004 35499 ft 445 kts 235°
2026-05-05 22:30 48.17500 165.81471 35564 ft 439 kts 235°
2026-05-05 22:31 48.13991 165.74026 35571 ft 437 kts 235°
2026-05-05 22:31 48.10481 165.66598 35574 ft 437 kts 235°
2026-05-05 22:32 48.06962 165.59175 35574 ft 438 kts 235°
2026-05-05 22:32 48.03432 165.51753 35571 ft 438 kts 235°
2026-05-05 22:33 47.99891 165.44323 35561 ft 439 kts 235°
2026-05-05 22:33 47.96344 165.36900 35564 ft 439 kts 235°
2026-05-05 22:34 47.92793 165.29491 35560 ft 439 kts 235°
2026-05-05 22:34 47.89241 165.22097 35561 ft 438 kts 235°
2026-05-05 22:35 47.85691 165.14727 35561 ft 437 kts 235°
2026-05-05 22:35 47.82140 165.07383 35560 ft 437 kts 235°
2026-05-05 22:36 47.78613 165.00099 35561 ft 436 kts 235°
2026-05-05 22:36 47.75058 164.92780 35554 ft 436 kts 235°
2026-05-05 22:37 47.71497 164.85469 35551 ft 436 kts 235°
2026-05-05 22:37 47.67932 164.78166 35557 ft 437 kts 235°
2026-05-05 22:38 47.64355 164.70860 35554 ft 438 kts 235°
2026-05-05 22:38 47.60769 164.63560 35552 ft 438 kts 235°
2026-05-05 22:39 47.57174 164.56254 35557 ft 439 kts 235°
2026-05-05 22:39 47.53568 164.48944 35556 ft 440 kts 235°
2026-05-05 22:40 47.49949 164.41629 35553 ft 441 kts 235°
2026-05-05 22:40 47.46319 164.34315 35554 ft 441 kts 235°
2026-05-05 22:41 47.42705 164.27046 35548 ft 442 kts 235°
2026-05-05 22:41 47.39061 164.19743 35542 ft 442 kts 235°
2026-05-05 22:42 47.35411 164.12450 35544 ft 441 kts 234°
2026-05-05 22:42 47.31764 164.05178 35543 ft 441 kts 234°
2026-05-05 22:43 47.28114 163.97914 35544 ft 440 kts 234°
2026-05-05 22:43 47.24483 163.90715 35560 ft 440 kts 235°
2026-05-05 22:44 47.20828 163.83481 35567 ft 441 kts 235°
2026-05-05 22:44 47.17162 163.76242 35557 ft 442 kts 235°
2026-05-05 22:45 47.13487 163.69012 35553 ft 442 kts 235°
2026-05-05 22:45 47.09802 163.61778 35556 ft 442 kts 235°
2026-05-05 22:46 47.06116 163.54566 35552 ft 442 kts 235°
2026-05-05 22:46 47.02427 163.47362 35554 ft 441 kts 235°
2026-05-05 22:47 46.98739 163.40181 35551 ft 441 kts 235°
2026-05-05 22:47 46.95046 163.33000 35558 ft 441 kts 235°
2026-05-05 22:48 46.91376 163.25889 35549 ft 440 kts 235°
2026-05-05 22:48 46.87683 163.18758 35553 ft 439 kts 235°
2026-05-05 22:49 46.83990 163.11631 35556 ft 440 kts 235°
2026-05-05 22:49 46.80287 163.04512 35556 ft 440 kts 235°
2026-05-05 22:50 46.76576 162.97398 35551 ft 440 kts 235°
2026-05-05 22:50 46.72866 162.90302 35554 ft 440 kts 235°
2026-05-05 22:51 46.69147 162.83201 35553 ft 441 kts 235°
2026-05-05 22:51 46.65420 162.76108 35555 ft 441 kts 235°
2026-05-05 22:52 46.61685 162.69020 35552 ft 441 kts 235°
2026-05-05 22:52 46.57944 162.61937 35559 ft 442 kts 235°
2026-05-05 22:53 46.54226 162.54913 35551 ft 441 kts 235°
2026-05-05 22:53 46.50477 162.47845 35553 ft 441 kts 235°
2026-05-05 22:54 46.46727 162.40799 35553 ft 441 kts 235°
2026-05-05 22:54 46.42977 162.33766 35551 ft 441 kts 235°
2026-05-05 22:55 46.39426 162.26561 35558 ft 438 kts 239°
2026-05-05 22:55 46.36052 162.19199 35554 ft 438 kts 239°
2026-05-05 22:56 46.32669 162.11855 35553 ft 438 kts 239°
2026-05-05 22:56 46.29283 162.04528 35552 ft 438 kts 239°
2026-05-05 22:57 46.25890 161.97213 35553 ft 438 kts 239°
2026-05-05 22:57 46.22511 161.89951 35554 ft 438 kts 239°
2026-05-05 22:58 46.19106 161.82656 35563 ft 438 kts 239°
2026-05-05 22:58 46.15697 161.75362 35566 ft 438 kts 239°
2026-05-05 22:59 46.12282 161.68073 35560 ft 439 kts 238°
2026-05-05 22:59 46.08862 161.60796 35567 ft 439 kts 239°
2026-05-05 23:00 46.03710 161.49872 35562 ft 440 kts 239°
2026-05-05 23:00 46.00259 161.42585 35562 ft 440 kts 239°
2026-05-05 23:01 45.96813 161.35316 35563 ft 440 kts 239°
2026-05-05 23:01 45.93365 161.28066 35559 ft 439 kts 239°
2026-05-05 23:02 45.89920 161.20844 35561 ft 438 kts 239°
2026-05-05 23:02 45.86485 161.13655 35563 ft 436 kts 239°
2026-05-05 23:03 45.83050 161.06488 35559 ft 435 kts 239°
2026-05-05 23:03 45.79620 160.99343 35566 ft 434 kts 239°
2026-05-05 23:04 45.76197 160.92230 35562 ft 433 kts 239°
2026-05-05 23:04 45.72763 160.85118 35562 ft 434 kts 239°
2026-05-05 23:05 45.69324 160.78019 35565 ft 434 kts 239°
2026-05-05 23:05 45.65905 160.70985 35561 ft 433 kts 239°
2026-05-05 23:06 45.62461 160.63910 35572 ft 434 kts 239°
2026-05-05 23:06 45.59012 160.56834 35573 ft 435 kts 239°
2026-05-05 23:07 45.55555 160.49756 35570 ft 435 kts 239°
2026-05-05 23:07 45.52087 160.42677 35570 ft 435 kts 239°
2026-05-05 23:08 45.48612 160.35617 35575 ft 435 kts 239°
2026-05-05 23:08 45.45143 160.28564 35573 ft 435 kts 239°
2026-05-05 23:09 45.41665 160.21520 35574 ft 435 kts 239°
2026-05-05 23:09 45.38179 160.14471 35574 ft 436 kts 239°
2026-05-05 23:10 45.34674 160.07411 35575 ft 437 kts 239°
2026-05-05 23:10 45.31122 160.00418 35574 ft 435 kts 239°
2026-05-05 23:11 45.27650 159.93403 35579 ft 433 kts 240°
2026-05-05 23:11 45.24215 159.86389 35576 ft 433 kts 239°
2026-05-05 23:12 45.20722 159.79420 35582 ft 434 kts 239°
2026-05-05 23:12 45.17221 159.72488 35583 ft 435 kts 239°
2026-05-05 23:13 45.13698 159.65501 35581 ft 436 kts 239°
2026-05-05 23:13 45.10166 159.58504 35585 ft 436 kts 239°
2026-05-05 23:14 45.06627 159.51525 35582 ft 436 kts 239°
2026-05-05 23:14 45.03089 159.44548 35592 ft 436 kts 239°
2026-05-05 23:15 44.99547 159.37577 35591 ft 436 kts 239°
2026-05-05 23:15 44.96002 159.30627 35589 ft 435 kts 239°
2026-05-05 23:16 44.93064 159.24870 35587 ft 434 kts 239°
2026-05-05 23:16 44.89523 159.17962 35591 ft 434 kts 239°
2026-05-05 23:17 44.85983 159.11065 35589 ft 434 kts 239°
2026-05-05 23:17 44.82438 159.04176 35612 ft 434 kts 239°
2026-05-05 23:18 44.78892 158.97294 35631 ft 434 kts 239°
2026-05-05 23:18 44.75336 158.90414 35620 ft 435 kts 239°
2026-05-05 23:19 44.71764 158.83522 35637 ft 437 kts 239°
2026-05-05 23:19 44.68177 158.76619 35640 ft 438 kts 239°
2026-05-05 23:20 44.64576 158.69701 35637 ft 438 kts 239°
2026-05-05 23:20 44.60998 158.62836 35629 ft 438 kts 239°
2026-05-05 23:21 44.57385 158.55941 35631 ft 438 kts 239°
2026-05-05 23:21 44.53783 158.49071 35634 ft 437 kts 239°
2026-05-05 23:22 44.50167 158.42202 35635 ft 438 kts 239°
2026-05-05 23:22 44.46553 158.35340 35675 ft 437 kts 239°
2026-05-05 23:23 44.42935 158.28484 35684 ft 438 kts 239°
2026-05-05 23:23 44.39307 158.21637 35685 ft 439 kts 239°
2026-05-05 23:24 44.35667 158.14780 35692 ft 439 kts 239°
2026-05-05 23:24 44.32020 158.07921 35693 ft 440 kts 239°
2026-05-05 23:25 44.28363 158.01066 35694 ft 440 kts 239°
2026-05-05 23:25 44.24701 157.94219 35693 ft 440 kts 239°
2026-05-05 23:26 44.21039 157.87383 35703 ft 440 kts 239°
2026-05-05 23:26 44.17374 157.80553 35700 ft 440 kts 239°
2026-05-05 23:27 44.13729 157.73783 35704 ft 440 kts 239°
2026-05-05 23:27 44.10053 157.66968 35704 ft 440 kts 239°
2026-05-05 23:28 44.06373 157.60165 35713 ft 440 kts 239°
2026-05-05 23:28 44.02688 157.53363 35712 ft 440 kts 239°
2026-05-05 23:29 43.98999 157.46579 35711 ft 440 kts 239°
2026-05-05 23:29 43.95310 157.39811 35721 ft 439 kts 239°
2026-05-05 23:30 43.91628 157.33061 35719 ft 439 kts 239°
2026-05-05 23:30 43.87940 157.26320 35723 ft 439 kts 239°
2026-05-05 23:31 43.84249 157.19592 35722 ft 438 kts 239°
2026-05-05 23:31 43.80557 157.12875 35730 ft 438 kts 239°
2026-05-05 23:32 43.76885 157.06210 35732 ft 438 kts 238°
2026-05-05 23:32 43.73190 156.99515 35728 ft 438 kts 238°
2026-05-05 23:33 43.69492 156.92834 35717 ft 438 kts 238°
2026-05-05 23:33 43.65792 156.86165 35730 ft 437 kts 238°
2026-05-05 23:34 43.62095 156.79514 35754 ft 436 kts 238°
2026-05-05 23:34 43.58396 156.72882 35757 ft 436 kts 238°
2026-05-05 23:35 43.54692 156.66255 35759 ft 436 kts 238°
2026-05-05 23:35 43.50990 156.59638 35762 ft 436 kts 238°
2026-05-05 23:36 43.47283 156.53026 35785 ft 436 kts 238°
2026-05-05 23:36 43.43571 156.46422 35787 ft 436 kts 238°
2026-05-05 23:37 43.39852 156.39822 35797 ft 437 kts 238°
2026-05-05 23:37 43.36127 156.33229 35795 ft 437 kts 238°
2026-05-05 23:38 43.32394 156.26641 35795 ft 437 kts 238°
2026-05-05 23:38 43.28658 156.20052 35802 ft 437 kts 238°
2026-05-05 23:39 43.24913 156.13464 35807 ft 438 kts 238°
2026-05-05 23:39 43.21184 156.06919 35803 ft 438 kts 238°
2026-05-05 23:40 43.17426 156.00340 35806 ft 438 kts 237°
2026-05-05 23:40 43.13667 155.93775 35813 ft 438 kts 237°
2026-05-05 23:41 43.09902 155.87211 35814 ft 438 kts 237°
2026-05-05 23:41 43.06132 155.80655 35815 ft 439 kts 237°
2026-05-05 23:42 43.02332 155.74060 35823 ft 439 kts 237°
2026-05-05 23:42 42.98577 155.67554 35826 ft 439 kts 237°
2026-05-05 23:43 42.94749 155.61040 35814 ft 440 kts 236°
2026-05-05 23:43 42.90875 155.54562 35815 ft 440 kts 236°
2026-05-05 23:44 42.87000 155.48090 35813 ft 440 kts 236°
2026-05-05 23:44 42.83128 155.41618 35813 ft 441 kts 236°
2026-05-05 23:45 42.79249 155.35144 35816 ft 441 kts 236°
2026-05-05 23:45 42.75368 155.28677 35823 ft 441 kts 236°
2026-05-05 23:46 42.71480 155.22215 35825 ft 441 kts 236°
2026-05-05 23:46 42.67587 155.15758 35824 ft 441 kts 236°
2026-05-05 23:47 42.63686 155.09305 35822 ft 441 kts 236°
2026-05-05 23:47 42.59809 155.02906 35833 ft 441 kts 236°
2026-05-05 23:48 42.55906 154.96470 35833 ft 442 kts 236°
2026-05-05 23:48 42.51995 154.90038 35835 ft 442 kts 236°
2026-05-05 23:49 42.48073 154.83601 35829 ft 443 kts 236°
2026-05-05 23:49 42.44141 154.77165 35840 ft 444 kts 236°
2026-05-05 23:50 42.40201 154.70728 35840 ft 444 kts 236°
2026-05-05 23:50 42.36246 154.64287 35840 ft 445 kts 236°
2026-05-05 23:51 42.32284 154.57848 35845 ft 446 kts 236°
2026-05-05 23:51 42.28315 154.51402 35841 ft 446 kts 235°
2026-05-05 23:52 42.24343 154.44966 35848 ft 446 kts 236°
2026-05-05 23:52 42.20359 154.38528 35850 ft 447 kts 235°
2026-05-05 23:53 42.16364 154.32086 35849 ft 448 kts 235°
2026-05-05 23:53 42.12388 154.25690 35852 ft 449 kts 235°
2026-05-05 23:54 42.08375 154.19251 35848 ft 449 kts 235°
2026-05-05 23:54 42.04352 154.12808 35863 ft 450 kts 235°
2026-05-05 23:55 42.00318 154.06355 35862 ft 450 kts 235°
2026-05-05 23:55 41.96284 153.99919 35863 ft 450 kts 235°
2026-05-05 23:56 41.92242 153.93491 35854 ft 450 kts 235°
2026-05-05 23:56 41.88206 153.87077 35856 ft 449 kts 235°
2026-05-05 23:57 41.84169 153.80687 35865 ft 449 kts 235°
2026-05-05 23:57 41.80128 153.74296 35860 ft 449 kts 235°
2026-05-05 23:58 41.76083 153.67907 35862 ft 449 kts 235°
2026-05-05 23:58 41.72037 153.61529 35880 ft 449 kts 235°
2026-05-05 23:59 41.67987 153.55173 35861 ft 449 kts 235°
2026-05-05 23:59 41.64624 153.49902 35869 ft 448 kts 235°
2026-05-06 00:00 41.59927 153.42552 35863 ft 447 kts 235°
2026-05-06 00:00 41.56547 153.37267 35886 ft 446 kts 235°
2026-05-06 00:01 41.51858 153.29961 35888 ft 445 kts 235°
2026-05-06 00:01 41.48478 153.24710 35866 ft 445 kts 234°
2026-05-06 00:02 41.44448 153.18453 35884 ft 445 kts 235°
2026-05-06 00:02 41.40436 153.12236 35882 ft 445 kts 234°
2026-05-06 00:03 41.36396 153.05994 35890 ft 445 kts 234°
2026-05-06 00:03 41.32354 152.99761 35890 ft 444 kts 235°
2026-05-06 00:04 41.28311 152.93534 35890 ft 444 kts 235°
2026-05-06 00:04 41.24270 152.87327 35911 ft 443 kts 235°
2026-05-06 00:05 41.18211 152.78045 35919 ft 444 kts 234°
2026-05-06 00:06 41.14164 152.71860 35915 ft 444 kts 234°
2026-05-06 00:06 41.10116 152.65683 35918 ft 444 kts 234°
2026-05-06 00:07 41.06062 152.59515 35916 ft 443 kts 234°
2026-05-06 00:07 41.02006 152.53355 35920 ft 443 kts 234°
2026-05-06 00:08 40.97982 152.47252 35927 ft 443 kts 234°
2026-05-06 00:08 40.93929 152.41122 35926 ft 443 kts 234°
2026-05-06 00:09 40.89866 152.34990 35927 ft 443 kts 234°
2026-05-06 00:09 40.85802 152.28865 35924 ft 443 kts 234°
2026-05-06 00:10 40.81734 152.22747 35926 ft 443 kts 234°
2026-05-06 00:10 40.77662 152.16640 35925 ft 443 kts 234°
2026-05-06 00:11 40.73593 152.10545 35935 ft 442 kts 234°
2026-05-06 00:11 40.69520 152.04457 35937 ft 443 kts 234°
2026-05-06 00:12 40.65469 151.98416 35934 ft 442 kts 234°
2026-05-06 00:12 40.61393 151.92356 35936 ft 442 kts 234°
2026-05-06 00:13 40.57322 151.86299 35935 ft 442 kts 234°
2026-05-06 00:13 40.53245 151.80251 35934 ft 441 kts 234°
2026-05-06 00:14 40.49170 151.74220 35945 ft 440 kts 234°
2026-05-06 00:14 40.45098 151.68213 35944 ft 440 kts 234°
2026-05-06 00:15 40.41038 151.62230 35943 ft 439 kts 234°
2026-05-06 00:15 40.36975 151.56251 35945 ft 438 kts 234°
2026-05-06 00:16 40.32917 151.50291 35944 ft 438 kts 234°
2026-05-06 00:16 40.28886 151.44389 35952 ft 437 kts 234°
2026-05-06 00:17 40.24830 151.38456 35954 ft 437 kts 234°
2026-05-06 00:17 40.20768 151.32528 35953 ft 437 kts 233°
2026-05-06 00:18 40.16708 151.26616 35953 ft 437 kts 233°
2026-05-06 00:18 40.12640 151.20699 35954 ft 438 kts 233°
2026-05-06 00:19 40.08566 151.14781 35955 ft 439 kts 233°
2026-05-06 00:19 40.04476 151.08857 35955 ft 439 kts 233°
2026-05-06 00:20 40.00380 151.02942 35963 ft 439 kts 233°
2026-05-06 00:20 39.96287 150.97039 35973 ft 437 kts 233°
2026-05-06 00:21 39.92225 150.91193 35956 ft 433 kts 234°
2026-05-06 00:21 39.88194 150.85401 35957 ft 429 kts 233°
2026-05-06 00:22 39.84195 150.79665 35959 ft 427 kts 233°
2026-05-06 00:22 39.80210 150.73954 35963 ft 425 kts 233°
2026-05-06 00:23 39.76225 150.68256 35966 ft 427 kts 233°
2026-05-06 00:23 39.72244 150.62575 35964 ft 429 kts 233°
2026-05-06 00:24 39.68217 150.56843 35964 ft 430 kts 233°
2026-05-06 00:24 39.64178 150.51102 35965 ft 431 kts 233°
2026-05-06 00:25 39.60128 150.45356 35964 ft 432 kts 233°
2026-05-06 00:25 39.56068 150.39607 35962 ft 432 kts 233°
2026-05-06 00:26 39.52005 150.33866 35965 ft 431 kts 233°
2026-05-06 00:26 39.47951 150.28153 35970 ft 430 kts 233°
2026-05-06 00:27 39.43905 150.22454 35972 ft 429 kts 233°
2026-05-06 00:27 39.39864 150.16771 35974 ft 429 kts 233°
2026-05-06 00:28 39.35825 150.11103 35974 ft 428 kts 233°
2026-05-06 00:28 39.31785 150.05447 35971 ft 428 kts 233°
2026-05-06 00:29 39.27750 149.99806 35971 ft 427 kts 233°
2026-05-06 00:29 39.23719 149.94179 35981 ft 427 kts 233°
2026-05-06 00:30 39.19689 149.88566 35978 ft 426 kts 233°
2026-05-06 00:30 39.15834 149.82826 35989 ft 420 kts 239°
2026-05-06 00:31 39.12711 149.76597 35985 ft 414 kts 245°
2026-05-06 00:31 39.09882 149.70142 35977 ft 413 kts 245°
2026-05-06 00:32 39.07042 149.63713 35983 ft 412 kts 245°
2026-05-06 00:32 39.04204 149.57308 35985 ft 412 kts 245°
2026-05-06 00:33 39.01363 149.50919 35985 ft 411 kts 245°
2026-05-06 00:33 38.98522 149.44543 35985 ft 411 kts 245°
2026-05-06 00:34 38.95684 149.38184 35995 ft 410 kts 245°
2026-05-06 00:34 38.92850 149.31843 35990 ft 409 kts 244°
2026-05-06 00:35 38.90015 149.25518 35996 ft 408 kts 244°
2026-05-06 00:35 38.87181 149.19208 35991 ft 408 kts 244°
2026-05-06 00:36 38.84345 149.12905 35998 ft 407 kts 244°
2026-05-06 00:36 38.81507 149.06608 35997 ft 407 kts 244°
2026-05-06 00:37 38.78668 149.00318 35997 ft 408 kts 244°
2026-05-06 00:37 38.75840 148.94073 36001 ft 408 kts 244°
2026-05-06 00:38 38.72991 148.87795 35999 ft 407 kts 244°
2026-05-06 00:38 38.70149 148.81538 35999 ft 406 kts 244°
2026-05-06 00:39 38.67309 148.75299 36009 ft 405 kts 244°
2026-05-06 00:39 38.64470 148.69078 36009 ft 404 kts 244°
2026-05-06 00:40 38.61635 148.62870 36011 ft 404 kts 244°
2026-05-06 00:40 38.58799 148.56679 36012 ft 403 kts 244°